Time,TemperatureF,DewpointF,PressureIn,WindDirection,WindDirectionDegrees,WindSpeedMPH,WindSpeedGustMPH,Humidity,HourlyPrecipIn,Conditions,Clouds,dailyrainin,SoftwareType,DateUTC
2013-04-05 00:01:00,45.1,39.0,31.01,North,0,0.0,0.0,79,0.00,,,0.00,VWS V13.01,2013-04-05 05:01:00,
2013-04-05 00:02:00,45.0,38.8,31.01,North,0,0.0,0.0,79,0.00,,,0.00,VWS V13.01,2013-04-05 05:02:00,
2013-04-05 00:06:00,45.0,38.8,31.01,North,0,0.0,0.0,79,0.00,,,0.00,VWS V13.01,2013-04-05 05:06:00,
2013-04-05 00:07:00,45.1,39.0,31.01,North,0,0.0,0.0,79,0.00,,,0.00,VWS V13.01,2013-04-05 05:07:00,
2013-04-05 00:11:00,45.9,39.7,31.01,North,0,0.0,0.0,79,0.00,,,0.00,VWS V13.01,2013-04-05 05:11:00,
2013-04-05 00:12:00,45.9,39.7,31.01,North,0,0.0,0.0,79,0.00,,,0.00,VWS V13.01,2013-04-05 05:12:00,
2013-04-05 00:14:00,45.5,39.4,31.01,North,0,0.0,0.0,79,0.00,,,0.00,VWS V13.01,2013-04-05 05:14:00,
2013-04-05 00:16:00,45.3,39.2,31.01,North,0,0.0,0.0,79,0.00,,,0.00,VWS V13.01,2013-04-05 05:16:00,
2013-04-05 00:17:00,45.3,39.2,31.01,North,0,0.0,0.0,79,0.00,,,0.00,VWS V13.01,2013-04-05 05:17:00,
2013-04-05 00:19:00,45.1,39.0,31.01,North,0,0.0,0.0,79,0.00,,,0.00,VWS V13.01,2013-04-05 05:19:00,
2013-04-05 00:22:00,44.8,38.7,31.01,North,0,0.0,0.0,79,0.00,,,0.00,VWS V13.01,2013-04-05 05:22:00,
2013-04-05 00:24:00,44.6,38.5,31.01,North,0,0.0,0.0,79,0.00,,,0.00,VWS V13.01,2013-04-05 05:24:00,
2013-04-05 00:27:00,44.6,38.5,31.01,North,0,0.0,0.0,79,0.00,,,0.00,VWS V13.01,2013-04-05 05:27:00,
2013-04-05 00:29:00,44.6,38.5,31.01,North,0,0.0,0.0,79,0.00,,,0.00,VWS V13.01,2013-04-05 05:29:00,
2013-04-05 00:32:00,44.8,38.7,31.01,North,0,0.0,0.0,79,0.00,,,0.00,VWS V13.01,2013-04-05 05:32:00,
2013-04-05 00:34:00,44.6,38.5,31.01,North,0,0.0,0.0,79,0.00,,,0.00,VWS V13.01,2013-04-05 05:34:00,
2013-04-05 00:37:00,44.2,40.0,31.01,North,0,0.0,0.0,85,0.00,,,0.00,VWS V13.01,2013-04-05 05:37:00,
2013-04-05 00:39:00,44.1,39.8,31.01,North,0,0.0,0.0,85,0.00,,,0.00,VWS V13.01,2013-04-05 05:39:00,
2013-04-05 00:42:00,44.1,39.8,31.01,North,0,0.0,0.0,85,0.00,,,0.00,VWS V13.01,2013-04-05 05:42:00,
2013-04-05 00:45:00,43.9,39.7,31.01,North,0,0.0,0.0,85,0.00,,,0.00,VWS V13.01,2013-04-05 05:45:00,
2013-04-05 00:47:00,44.2,40.0,31.01,North,0,0.0,0.0,85,0.00,,,0.00,VWS V13.01,2013-04-05 05:47:00,
2013-04-05 00:50:00,44.1,39.8,31.01,North,0,0.0,0.0,85,0.00,,,0.00,VWS V13.01,2013-04-05 05:50:00,
2013-04-05 00:52:00,43.7,39.5,31.01,North,0,0.0,0.0,85,0.00,,,0.00,VWS V13.01,2013-04-05 05:52:00,
2013-04-05 00:55:00,43.3,39.1,31.01,North,0,0.0,0.0,85,0.00,,,0.00,VWS V13.01,2013-04-05 05:55:00,
2013-04-05 00:57:00,43.3,39.1,31.01,North,0,0.0,0.0,85,0.00,,,0.00,VWS V13.01,2013-04-05 05:57:00,
2013-04-05 00:58:00,43.5,39.3,31.01,North,0,0.0,0.0,85,0.00,,,0.00,VWS V13.01,2013-04-05 05:58:00,
2013-04-05 01:00:00,43.7,39.5,31.01,North,0,0.0,0.0,85,0.00,,,0.00,VWS V13.01,2013-04-05 06:00:00,
2013-04-05 01:02:00,44.1,39.8,31.01,North,0,0.0,0.0,85,0.00,,,0.00,VWS V13.01,2013-04-05 06:02:00,
2013-04-05 01:03:00,44.1,39.8,31.01,North,0,0.0,0.0,85,0.00,,,0.00,VWS V13.01,2013-04-05 06:03:00,
2013-04-05 01:05:00,44.2,40.0,31.01,North,0,0.0,0.0,85,0.00,,,0.00,VWS V13.01,2013-04-05 06:05:00,
2013-04-05 01:08:00,44.2,40.0,31.01,North,0,0.0,0.0,85,0.00,,,0.00,VWS V13.01,2013-04-05 06:08:00,
2013-04-05 01:10:00,44.2,40.0,31.01,North,0,0.0,0.0,85,0.00,,,0.00,VWS V13.01,2013-04-05 06:10:00,
2013-04-05 01:13:00,44.4,40.2,31.01,North,0,0.0,0.0,85,0.00,,,0.00,VWS V13.01,2013-04-05 06:13:00,
2013-04-05 01:15:00,44.6,38.5,31.01,North,0,0.0,0.0,79,0.00,,,0.00,VWS V13.01,2013-04-05 06:15:00,
2013-04-05 01:18:00,44.4,40.2,31.01,North,0,0.0,0.0,85,0.00,,,0.00,VWS V13.01,2013-04-05 06:18:00,
2013-04-05 01:20:00,44.1,39.8,31.01,North,0,0.0,0.0,85,0.00,,,0.00,VWS V13.01,2013-04-05 06:20:00,
2013-04-05 01:23:00,43.9,39.7,31.01,North,0,0.0,0.0,85,0.00,,,0.00,VWS V13.01,2013-04-05 06:23:00,
2013-04-05 01:25:00,43.5,39.3,31.01,North,0,0.0,0.0,85,0.00,,,0.00,VWS V13.01,2013-04-05 06:25:00,
2013-04-05 01:28:00,43.5,39.3,31.01,North,0,0.0,0.0,85,0.00,,,0.00,VWS V13.01,2013-04-05 06:28:00,
2013-04-05 01:30:00,43.3,39.1,31.01,North,0,0.0,0.0,85,0.00,,,0.00,VWS V13.01,2013-04-05 06:30:00,
2013-04-05 01:33:00,43.3,39.1,31.01,North,0,0.0,0.0,85,0.00,,,0.00,VWS V13.01,2013-04-05 06:33:00,
2013-04-05 01:35:00,43.5,39.3,31.01,North,0,0.0,0.0,85,0.00,,,0.00,VWS V13.01,2013-04-05 06:35:00,
2013-04-05 01:38:00,43.7,39.5,31.01,North,0,0.0,0.0,85,0.00,,,0.00,VWS V13.01,2013-04-05 06:38:00,
2013-04-05 01:39:00,43.9,39.7,31.01,North,0,0.0,0.0,85,0.00,,,0.00,VWS V13.01,2013-04-05 06:39:00,
2013-04-05 01:40:00,43.9,39.7,31.01,North,0,0.0,0.0,85,0.00,,,0.00,VWS V13.01,2013-04-05 06:40:00,
2013-04-05 01:43:00,43.7,39.5,31.01,North,0,0.0,0.0,85,0.00,,,0.00,VWS V13.01,2013-04-05 06:43:00,
2013-04-05 01:44:00,43.7,39.5,31.01,North,0,0.0,0.0,85,0.00,,,0.00,VWS V13.01,2013-04-05 06:44:00,
2013-04-05 01:45:00,43.5,39.3,31.01,North,0,0.0,0.0,85,0.00,,,0.00,VWS V13.01,2013-04-05 06:45:00,
2013-04-05 01:48:00,43.5,39.3,31.01,North,0,0.0,0.0,85,0.00,,,0.00,VWS V13.01,2013-04-05 06:48:00,
2013-04-05 01:49:00,43.5,39.3,31.01,North,0,0.0,0.0,85,0.00,,,0.00,VWS V13.01,2013-04-05 06:49:00,
2013-04-05 01:50:00,43.3,39.1,31.01,North,0,0.0,0.0,85,0.00,,,0.00,VWS V13.01,2013-04-05 06:50:00,
2013-04-05 01:53:00,43.7,39.5,31.01,North,0,0.0,0.0,85,0.00,,,0.00,VWS V13.01,2013-04-05 06:53:00,
2013-04-05 01:54:00,43.9,39.7,31.01,North,0,0.0,0.0,85,0.00,,,0.00,VWS V13.01,2013-04-05 06:54:00,
2013-04-05 01:55:00,44.1,39.8,31.01,North,0,0.0,0.0,85,0.00,,,0.00,VWS V13.01,2013-04-05 06:55:00,
2013-04-05 01:58:00,44.2,40.0,31.01,North,0,0.0,0.0,85,0.00,,,0.00,VWS V13.01,2013-04-05 06:58:00,
2013-04-05 01:59:00,44.2,40.0,31.01,North,0,0.0,0.0,85,0.00,,,0.00,VWS V13.01,2013-04-05 06:59:00,
2013-04-05 02:01:00,44.2,40.0,31.01,North,0,0.0,0.0,85,0.00,,,0.00,VWS V13.01,2013-04-05 07:01:00,
2013-04-05 02:03:00,44.1,39.8,31.01,North,0,0.0,0.0,85,0.00,,,0.00,VWS V13.01,2013-04-05 07:03:00,
2013-04-05 02:04:00,44.1,39.8,31.01,North,0,0.0,0.0,85,0.00,,,0.00,VWS V13.01,2013-04-05 07:04:00,
2013-04-05 02:05:00,44.1,39.8,31.01,North,0,0.0,0.0,85,0.00,,,0.00,VWS V13.01,2013-04-05 07:05:00,
2013-04-05 02:06:00,44.1,39.8,31.01,North,0,0.0,0.0,85,0.00,,,0.00,VWS V13.01,2013-04-05 07:06:00,
2013-04-05 02:08:00,44.1,39.8,31.01,North,0,0.0,0.0,85,0.00,,,0.00,VWS V13.01,2013-04-05 07:08:00,
2013-04-05 02:09:00,43.9,39.7,31.01,North,0,0.0,0.0,85,0.00,,,0.00,VWS V13.01,2013-04-05 07:09:00,
2013-04-05 02:10:00,43.9,39.7,31.01,North,0,0.0,0.0,85,0.00,,,0.00,VWS V13.01,2013-04-05 07:10:00,
2013-04-05 02:11:00,43.7,39.5,31.01,North,0,0.0,0.0,85,0.00,,,0.00,VWS V13.01,2013-04-05 07:11:00,
2013-04-05 02:13:00,43.7,39.5,31.01,North,0,0.0,0.0,85,0.00,,,0.00,VWS V13.01,2013-04-05 07:13:00,
2013-04-05 02:15:00,43.9,39.7,31.01,North,0,0.0,0.0,85,0.00,,,0.00,VWS V13.01,2013-04-05 07:15:00,
2013-04-05 02:16:00,43.9,39.7,31.01,North,0,0.0,0.0,85,0.00,,,0.00,VWS V13.01,2013-04-05 07:16:00,
2013-04-05 02:18:00,43.9,39.7,31.01,North,0,0.0,0.0,85,0.00,,,0.00,VWS V13.01,2013-04-05 07:18:00,
2013-04-05 02:20:00,43.9,39.7,31.01,North,0,0.0,0.0,85,0.00,,,0.00,VWS V13.01,2013-04-05 07:20:00,
2013-04-05 02:21:00,43.9,39.7,31.01,North,0,0.0,0.0,85,0.00,,,0.00,VWS V13.01,2013-04-05 07:21:00,
2013-04-05 02:23:00,43.9,39.7,31.01,North,0,0.0,0.0,85,0.00,,,0.00,VWS V13.01,2013-04-05 07:23:00,
2013-04-05 02:25:00,43.9,39.7,31.01,North,0,0.0,0.0,85,0.00,,,0.00,VWS V13.01,2013-04-05 07:25:00,
2013-04-05 02:26:00,43.7,39.5,31.01,North,0,0.0,0.0,85,0.00,,,0.00,VWS V13.01,2013-04-05 07:26:00,
2013-04-05 02:28:00,43.7,39.5,31.01,North,0,0.0,0.0,85,0.00,,,0.00,VWS V13.01,2013-04-05 07:28:00,
2013-04-05 02:30:00,43.9,39.7,31.01,North,0,0.0,0.0,85,0.00,,,0.00,VWS V13.01,2013-04-05 07:30:00,
2013-04-05 02:31:00,44.1,39.8,31.01,North,0,0.0,0.0,85,0.00,,,0.00,VWS V13.01,2013-04-05 07:31:00,
2013-04-05 02:33:00,43.9,39.7,31.01,North,0,0.0,0.0,85,0.00,,,0.00,VWS V13.01,2013-04-05 07:33:00,
2013-04-05 02:35:00,43.9,39.7,31.01,North,0,0.0,0.0,85,0.00,,,0.00,VWS V13.01,2013-04-05 07:35:00,
2013-04-05 02:37:00,43.7,39.5,31.01,North,0,0.0,0.0,85,0.00,,,0.00,VWS V13.01,2013-04-05 07:37:00,
2013-04-05 02:38:00,43.7,39.5,31.01,North,0,0.0,0.0,85,0.00,,,0.00,VWS V13.01,2013-04-05 07:38:00,
2013-04-05 02:40:00,43.9,39.7,31.01,North,0,0.0,0.0,85,0.00,,,0.00,VWS V13.01,2013-04-05 07:40:00,
2013-04-05 02:42:00,44.1,39.8,31.01,North,0,0.0,0.0,85,0.00,,,0.00,VWS V13.01,2013-04-05 07:42:00,
2013-04-05 02:43:00,44.2,40.0,31.01,North,0,0.0,0.0,85,0.00,,,0.00,VWS V13.01,2013-04-05 07:43:00,
2013-04-05 02:45:00,44.2,40.0,31.01,North,0,0.0,0.0,85,0.00,,,0.00,VWS V13.01,2013-04-05 07:45:00,
2013-04-05 02:47:00,43.9,39.7,31.01,North,0,0.0,0.0,85,0.00,,,0.00,VWS V13.01,2013-04-05 07:47:00,
2013-04-05 02:48:00,43.7,39.5,31.01,North,0,0.0,0.0,85,0.00,,,0.00,VWS V13.01,2013-04-05 07:48:00,
2013-04-05 02:50:00,43.3,39.1,31.01,North,0,0.0,0.0,85,0.00,,,0.00,VWS V13.01,2013-04-05 07:50:00,
2013-04-05 02:52:00,43.2,39.0,31.01,North,0,0.0,0.0,85,0.00,,,0.00,VWS V13.01,2013-04-05 07:52:00,
2013-04-05 02:53:00,43.2,39.0,31.01,North,0,0.0,0.0,85,0.00,,,0.00,VWS V13.01,2013-04-05 07:53:00,
2013-04-05 02:55:00,43.3,39.1,31.01,North,0,0.0,0.0,85,0.00,,,0.00,VWS V13.01,2013-04-05 07:55:00,
2013-04-05 02:57:00,43.3,39.1,31.01,North,0,0.0,0.0,85,0.00,,,0.00,VWS V13.01,2013-04-05 07:57:00,
2013-04-05 03:00:00,43.2,39.0,31.01,North,0,0.0,0.0,85,0.00,,,0.00,VWS V13.01,2013-04-05 08:00:00,
2013-04-05 03:02:00,43.0,38.8,31.01,North,0,0.0,0.0,85,0.00,,,0.00,VWS V13.01,2013-04-05 08:02:00,
2013-04-05 03:05:00,42.6,38.4,31.01,North,0,0.0,0.0,85,0.00,,,0.00,VWS V13.01,2013-04-05 08:05:00,
2013-04-05 03:06:00,42.6,38.4,31.01,North,0,0.0,0.0,85,0.00,,,0.00,VWS V13.01,2013-04-05 08:06:00,
2013-04-05 03:07:00,42.4,38.3,31.01,North,0,0.0,0.0,85,0.00,,,0.00,VWS V13.01,2013-04-05 08:07:00,
2013-04-05 03:10:00,42.6,38.4,31.01,North,0,0.0,0.0,85,0.00,,,0.00,VWS V13.01,2013-04-05 08:10:00,
2013-04-05 03:11:00,42.4,38.3,31.01,North,0,0.0,0.0,85,0.00,,,0.00,VWS V13.01,2013-04-05 08:11:00,
2013-04-05 03:12:00,42.4,38.3,31.01,North,0,0.0,0.0,85,0.00,,,0.00,VWS V13.01,2013-04-05 08:12:00,
2013-04-05 03:15:00,42.3,38.1,31.01,North,0,0.0,0.0,85,0.00,,,0.00,VWS V13.01,2013-04-05 08:15:00,
2013-04-05 03:16:00,42.3,38.1,31.01,North,0,0.0,0.0,85,0.00,,,0.00,VWS V13.01,2013-04-05 08:16:00,
2013-04-05 03:17:00,42.3,38.1,31.01,North,0,0.0,0.0,85,0.00,,,0.00,VWS V13.01,2013-04-05 08:17:00,
2013-04-05 03:20:00,42.3,38.1,31.01,North,0,0.0,0.0,85,0.00,,,0.00,VWS V13.01,2013-04-05 08:20:00,
2013-04-05 03:21:00,42.3,38.1,31.01,North,0,0.0,0.0,85,0.00,,,0.00,VWS V13.01,2013-04-05 08:21:00,
2013-04-05 03:23:00,42.3,38.1,31.01,North,0,0.0,0.0,85,0.00,,,0.00,VWS V13.01,2013-04-05 08:23:00,
2013-04-05 03:25:00,42.1,37.9,31.01,North,0,0.0,0.0,85,0.00,,,0.00,VWS V13.01,2013-04-05 08:25:00,
2013-04-05 03:26:00,41.9,37.7,31.01,North,0,0.0,0.0,85,0.00,,,0.00,VWS V13.01,2013-04-05 08:26:00,
2013-04-05 03:28:00,41.7,37.5,31.01,North,0,0.0,0.0,85,0.00,,,0.00,VWS V13.01,2013-04-05 08:28:00,
2013-04-05 03:30:00,41.5,37.4,31.01,North,0,0.0,0.0,85,0.00,,,0.00,VWS V13.01,2013-04-05 08:30:00,
2013-04-05 03:31:00,41.5,37.4,31.01,North,0,0.0,0.0,85,0.00,,,0.00,VWS V13.01,2013-04-05 08:31:00,
2013-04-05 03:33:00,41.4,37.2,31.01,North,0,0.0,0.0,85,0.00,,,0.00,VWS V13.01,2013-04-05 08:33:00,
2013-04-05 03:35:00,41.4,37.2,31.01,North,0,0.0,0.0,85,0.00,,,0.00,VWS V13.01,2013-04-05 08:35:00,
2013-04-05 03:37:00,41.2,37.0,31.01,North,0,0.0,0.0,85,0.00,,,0.00,VWS V13.01,2013-04-05 08:37:00,
2013-04-05 03:38:00,41.2,37.0,31.01,North,0,0.0,0.0,85,0.00,,,0.00,VWS V13.01,2013-04-05 08:38:00,
2013-04-05 03:41:00,41.2,37.0,31.01,North,0,0.0,0.0,85,0.00,,,0.00,VWS V13.01,2013-04-05 08:41:00,
2013-04-05 03:42:00,41.2,37.0,31.01,North,0,0.0,0.0,85,0.00,,,0.00,VWS V13.01,2013-04-05 08:42:00,
2013-04-05 03:43:00,41.2,37.0,31.01,North,0,0.0,0.0,85,0.00,,,0.00,VWS V13.01,2013-04-05 08:43:00,
2013-04-05 03:47:00,41.7,37.5,31.01,North,0,0.0,0.0,85,0.00,,,0.00,VWS V13.01,2013-04-05 08:47:00,
2013-04-05 03:48:00,42.1,37.9,31.01,North,0,0.0,0.0,85,0.00,,,0.00,VWS V13.01,2013-04-05 08:48:00,
2013-04-05 03:52:00,42.4,38.3,31.01,North,0,0.0,0.0,85,0.00,,,0.00,VWS V13.01,2013-04-05 08:52:00,
2013-04-05 03:53:00,42.4,38.3,31.01,North,0,0.0,0.0,85,0.00,,,0.00,VWS V13.01,2013-04-05 08:53:00,
2013-04-05 03:57:00,42.1,37.9,31.01,North,0,0.0,0.0,85,0.00,,,0.00,VWS V13.01,2013-04-05 08:57:00,
2013-04-05 03:58:00,41.9,37.7,31.01,North,0,0.0,0.0,85,0.00,,,0.00,VWS V13.01,2013-04-05 08:58:00,
2013-04-05 04:02:00,41.9,37.7,31.01,North,0,0.0,0.0,85,0.00,,,0.00,VWS V13.01,2013-04-05 09:02:00,
2013-04-05 04:03:00,41.9,37.7,31.01,North,0,0.0,0.0,85,0.00,,,0.00,VWS V13.01,2013-04-05 09:03:00,
2013-04-05 04:07:00,41.9,37.7,31.01,North,0,0.0,0.0,85,0.00,,,0.00,VWS V13.01,2013-04-05 09:07:00,
2013-04-05 04:08:00,41.9,37.7,31.01,North,0,0.0,0.0,85,0.00,,,0.00,VWS V13.01,2013-04-05 09:08:00,
2013-04-05 04:12:00,41.7,37.5,31.01,North,0,0.0,0.0,85,0.00,,,0.00,VWS V13.01,2013-04-05 09:12:00,
2013-04-05 04:13:00,41.7,37.5,31.01,North,0,0.0,0.0,85,0.00,,,0.00,VWS V13.01,2013-04-05 09:13:00,
2013-04-05 04:17:00,41.5,37.4,31.01,North,0,0.0,0.0,85,0.00,,,0.00,VWS V13.01,2013-04-05 09:17:00,
2013-04-05 04:18:00,41.5,37.4,31.01,North,0,0.0,0.0,85,0.00,,,0.00,VWS V13.01,2013-04-05 09:18:00,
2013-04-05 04:22:00,41.2,37.0,31.01,North,0,0.0,0.0,85,0.00,,,0.00,VWS V13.01,2013-04-05 09:22:00,
2013-04-05 04:23:00,41.2,37.0,31.01,North,0,0.0,0.0,85,0.00,,,0.00,VWS V13.01,2013-04-05 09:23:00,
2013-04-05 04:24:00,41.2,37.0,31.01,North,0,0.0,0.0,85,0.00,,,0.00,VWS V13.01,2013-04-05 09:24:00,
2013-04-05 04:27:00,41.0,36.8,31.01,North,0,0.0,0.0,85,0.00,,,0.00,VWS V13.01,2013-04-05 09:27:00,
2013-04-05 04:28:00,41.0,36.8,31.01,North,0,0.0,0.0,85,0.00,,,0.00,VWS V13.01,2013-04-05 09:28:00,
2013-04-05 04:29:00,41.0,36.8,31.01,North,0,0.0,0.0,85,0.00,,,0.00,VWS V13.01,2013-04-05 09:29:00,
2013-04-05 04:32:00,40.8,36.7,31.01,North,0,0.0,0.0,85,0.00,,,0.00,VWS V13.01,2013-04-05 09:32:00,
2013-04-05 04:33:00,40.8,36.7,31.01,North,0,0.0,0.0,85,0.00,,,0.00,VWS V13.01,2013-04-05 09:33:00,
2013-04-05 04:34:00,40.6,36.5,31.01,North,0,0.0,0.0,85,0.00,,,0.00,VWS V13.01,2013-04-05 09:34:00,
2013-04-05 04:38:00,40.5,36.3,31.01,North,0,0.0,0.0,85,0.00,,,0.00,VWS V13.01,2013-04-05 09:38:00,
2013-04-05 04:40:00,40.6,36.5,31.01,North,0,0.0,0.0,85,0.00,,,0.00,VWS V13.01,2013-04-05 09:40:00,
2013-04-05 04:43:00,40.5,36.3,31.01,North,0,0.0,0.0,85,0.00,,,0.00,VWS V13.01,2013-04-05 09:43:00,
2013-04-05 04:45:00,40.3,36.1,31.01,North,0,0.0,0.0,85,0.00,,,0.00,VWS V13.01,2013-04-05 09:45:00,
2013-04-05 04:48:00,39.9,35.8,31.01,North,0,0.0,0.0,85,0.00,,,0.00,VWS V13.01,2013-04-05 09:48:00,
2013-04-05 04:50:00,39.7,35.6,31.01,North,0,0.0,0.0,85,0.00,,,0.00,VWS V13.01,2013-04-05 09:50:00,
2013-04-05 04:53:00,39.4,35.2,31.01,North,0,0.0,0.0,85,0.00,,,0.00,VWS V13.01,2013-04-05 09:53:00,
2013-04-05 04:55:00,39.2,35.1,31.01,North,0,0.0,0.0,85,0.00,,,0.00,VWS V13.01,2013-04-05 09:55:00,
2013-04-05 04:58:00,38.8,36.4,31.01,North,0,0.0,0.0,91,0.00,,,0.00,VWS V13.01,2013-04-05 09:58:00,
2013-04-05 05:00:00,38.3,35.9,31.01,North,0,0.0,0.0,91,0.00,,,0.00,VWS V13.01,2013-04-05 10:00:00,
2013-04-05 05:03:00,37.9,35.5,31.01,North,0,0.0,0.0,91,0.00,,,0.00,VWS V13.01,2013-04-05 10:03:00,
2013-04-05 05:05:00,37.9,35.5,31.01,North,0,0.0,0.0,91,0.00,,,0.00,VWS V13.01,2013-04-05 10:05:00,
2013-04-05 05:08:00,37.8,35.4,31.01,North,0,0.0,0.0,91,0.00,,,0.00,VWS V13.01,2013-04-05 10:08:00,
2013-04-05 05:10:00,37.8,35.4,31.01,North,0,0.0,0.0,91,0.00,,,0.00,VWS V13.01,2013-04-05 10:10:00,
2013-04-05 05:13:00,38.3,35.9,31.01,North,0,0.0,0.0,91,0.00,,,0.00,VWS V13.01,2013-04-05 10:13:00,
2013-04-05 05:15:00,38.3,35.9,31.01,North,0,0.0,0.0,91,0.00,,,0.00,VWS V13.01,2013-04-05 10:15:00,
2013-04-05 05:18:00,38.5,36.1,31.01,North,0,0.0,0.0,91,0.00,,,0.00,VWS V13.01,2013-04-05 10:18:00,
2013-04-05 05:20:00,38.8,36.4,31.01,North,0,0.0,0.0,91,0.00,,,0.00,VWS V13.01,2013-04-05 10:20:00,
2013-04-05 05:23:00,39.0,36.6,31.01,North,0,0.0,0.0,91,0.00,,,0.00,VWS V13.01,2013-04-05 10:23:00,
2013-04-05 05:26:00,38.8,36.4,31.01,North,0,0.0,0.0,91,0.00,,,0.00,VWS V13.01,2013-04-05 10:26:00,
2013-04-05 05:28:00,38.7,36.3,31.01,North,0,0.0,0.0,91,0.00,,,0.00,VWS V13.01,2013-04-05 10:28:00,
2013-04-05 05:29:00,38.7,36.3,31.01,North,0,0.0,0.0,91,0.00,,,0.00,VWS V13.01,2013-04-05 10:29:00,
2013-04-05 05:31:00,38.8,36.4,31.01,North,0,0.0,0.0,91,0.00,,,0.00,VWS V13.01,2013-04-05 10:31:00,
2013-04-05 05:33:00,38.8,36.4,31.01,North,0,0.0,0.0,91,0.00,,,0.00,VWS V13.01,2013-04-05 10:33:00,
2013-04-05 05:34:00,38.8,36.4,31.01,North,0,0.0,0.0,91,0.00,,,0.00,VWS V13.01,2013-04-05 10:34:00,
2013-04-05 05:37:00,39.0,36.6,31.01,North,0,0.0,0.0,91,0.00,,,0.00,VWS V13.01,2013-04-05 10:37:00,
2013-04-05 05:38:00,39.0,36.6,31.01,North,0,0.0,0.0,91,0.00,,,0.00,VWS V13.01,2013-04-05 10:38:00,
2013-04-05 05:39:00,39.0,36.6,31.01,North,0,0.0,0.0,91,0.00,,,0.00,VWS V13.01,2013-04-05 10:39:00,
2013-04-05 05:42:00,38.7,36.3,31.01,North,0,0.0,0.0,91,0.00,,,0.00,VWS V13.01,2013-04-05 10:42:00,
2013-04-05 05:43:00,38.7,36.3,31.01,North,0,0.0,0.0,91,0.00,,,0.00,VWS V13.01,2013-04-05 10:43:00,
2013-04-05 05:44:00,38.5,36.1,31.01,North,0,0.0,0.0,91,0.00,,,0.00,VWS V13.01,2013-04-05 10:44:00,
2013-04-05 05:48:00,38.1,35.7,31.01,North,0,0.0,0.0,91,0.00,,,0.00,VWS V13.01,2013-04-05 10:48:00,
2013-04-05 05:49:00,37.9,35.5,31.01,North,0,0.0,0.0,91,0.00,,,0.00,VWS V13.01,2013-04-05 10:49:00,
2013-04-05 05:50:00,37.9,35.5,31.01,North,0,0.0,0.0,91,0.00,,,0.00,VWS V13.01,2013-04-05 10:50:00,
2013-04-05 05:53:00,37.9,35.5,31.01,North,0,0.0,0.0,91,0.00,,,0.00,VWS V13.01,2013-04-05 10:53:00,
2013-04-05 05:54:00,37.9,35.5,31.01,North,0,0.0,0.0,91,0.00,,,0.00,VWS V13.01,2013-04-05 10:54:00,
2013-04-05 05:55:00,37.9,35.5,31.01,North,0,0.0,0.0,91,0.00,,,0.00,VWS V13.01,2013-04-05 10:55:00,
2013-04-05 05:58:00,37.6,35.2,31.01,North,0,0.0,0.0,91,0.00,,,0.00,VWS V13.01,2013-04-05 10:58:00,
2013-04-05 05:59:00,37.4,35.0,31.01,North,0,0.0,0.0,91,0.00,,,0.00,VWS V13.01,2013-04-05 10:59:00,
2013-04-05 06:00:00,37.4,35.0,31.01,North,0,0.0,0.0,91,0.00,,,0.00,VWS V13.01,2013-04-05 11:00:00,
2013-04-05 06:03:00,37.4,35.0,31.01,North,0,0.0,0.0,91,0.00,,,0.00,VWS V13.01,2013-04-05 11:03:00,
2013-04-05 06:04:00,37.2,34.8,31.01,North,0,0.0,0.0,91,0.00,,,0.00,VWS V13.01,2013-04-05 11:04:00,
2013-04-05 06:05:00,37.2,34.8,31.01,North,0,0.0,0.0,91,0.00,,,0.00,VWS V13.01,2013-04-05 11:05:00,
2013-04-05 06:08:00,37.2,34.8,31.01,North,0,0.0,0.0,91,0.00,,,0.00,VWS V13.01,2013-04-05 11:08:00,
2013-04-05 06:09:00,37.0,34.7,31.01,North,0,0.0,0.0,91,0.00,,,0.00,VWS V13.01,2013-04-05 11:09:00,
2013-04-05 06:10:00,37.0,34.7,31.01,North,0,0.0,0.0,91,0.00,,,0.00,VWS V13.01,2013-04-05 11:10:00,
2013-04-05 06:13:00,37.0,34.7,31.01,North,0,0.0,0.0,91,0.00,,,0.00,VWS V13.01,2013-04-05 11:13:00,
2013-04-05 06:14:00,37.0,34.7,31.01,North,0,0.0,0.0,91,0.00,,,0.00,VWS V13.01,2013-04-05 11:14:00,
2013-04-05 06:15:00,37.0,34.7,31.01,North,0,0.0,0.0,91,0.00,,,0.00,VWS V13.01,2013-04-05 11:15:00,
2013-04-05 06:19:00,36.9,34.5,31.01,North,0,0.0,0.0,91,0.00,,,0.00,VWS V13.01,2013-04-05 11:19:00,
2013-04-05 06:20:00,36.9,34.5,31.01,North,0,0.0,0.0,91,0.00,,,0.00,VWS V13.01,2013-04-05 11:20:00,
2013-04-05 06:24:00,36.9,34.5,31.01,North,0,0.0,0.0,91,0.00,,,0.00,VWS V13.01,2013-04-05 11:24:00,
2013-04-05 06:25:00,36.9,34.5,31.01,North,0,0.0,0.0,91,0.00,,,0.00,VWS V13.01,2013-04-05 11:25:00,
2013-04-05 06:29:00,36.9,34.5,31.01,North,0,0.0,0.0,91,0.00,,,0.00,VWS V13.01,2013-04-05 11:29:00,
2013-04-05 06:30:00,36.9,34.5,31.01,North,0,0.0,0.0,91,0.00,,,0.00,VWS V13.01,2013-04-05 11:30:00,
2013-04-05 06:31:00,36.9,34.5,31.01,North,0,0.0,0.0,91,0.00,,,0.00,VWS V13.01,2013-04-05 11:31:00,
2013-04-05 06:34:00,36.9,34.5,31.01,North,0,0.0,0.0,91,0.00,,,0.00,VWS V13.01,2013-04-05 11:34:00,
2013-04-05 06:35:00,36.7,34.3,31.01,North,0,0.0,0.0,91,0.00,,,0.00,VWS V13.01,2013-04-05 11:35:00,
2013-04-05 06:36:00,36.7,34.3,31.01,North,0,0.0,0.0,91,0.00,,,0.00,VWS V13.01,2013-04-05 11:36:00,
2013-04-05 06:40:00,36.7,34.3,31.01,North,0,0.0,0.0,91,0.00,,,0.00,VWS V13.01,2013-04-05 11:40:00,
2013-04-05 06:41:00,36.7,34.3,31.01,North,0,0.0,0.0,91,0.00,,,0.00,VWS V13.01,2013-04-05 11:41:00,
2013-04-05 06:45:00,36.7,34.3,31.01,North,0,0.0,0.0,91,0.00,,,0.00,VWS V13.01,2013-04-05 11:45:00,
2013-04-05 06:46:00,36.7,34.3,31.01,North,0,0.0,0.0,91,0.00,,,0.00,VWS V13.01,2013-04-05 11:46:00,
2013-04-05 06:47:00,36.7,34.3,31.01,North,0,0.0,0.0,91,0.00,,,0.00,VWS V13.01,2013-04-05 11:47:00,
2013-04-05 06:50:00,36.7,34.3,31.01,North,0,0.0,0.0,91,0.00,,,0.00,VWS V13.01,2013-04-05 11:50:00,
2013-04-05 06:51:00,36.5,34.1,31.01,North,0,0.0,0.0,91,0.00,,,0.00,VWS V13.01,2013-04-05 11:51:00,
2013-04-05 06:52:00,36.7,34.3,31.01,North,0,0.0,0.0,91,0.00,,,0.00,VWS V13.01,2013-04-05 11:52:00,
2013-04-05 06:55:00,36.7,34.3,31.01,North,0,0.0,0.0,91,0.00,,,0.00,VWS V13.01,2013-04-05 11:55:00,
2013-04-05 06:56:00,36.5,34.1,31.01,North,0,0.0,0.0,91,0.00,,,0.00,VWS V13.01,2013-04-05 11:56:00,
2013-04-05 06:58:00,36.5,34.1,31.01,North,0,0.0,0.0,91,0.00,,,0.00,VWS V13.01,2013-04-05 11:58:00,
2013-04-05 07:00:00,36.7,34.3,31.01,North,0,0.0,0.0,91,0.00,,,0.00,VWS V13.01,2013-04-05 12:00:00,
2013-04-05 07:01:00,36.7,34.3,31.01,North,0,0.0,0.0,91,0.00,,,0.00,VWS V13.01,2013-04-05 12:01:00,
2013-04-05 07:02:00,36.7,34.3,31.01,North,0,0.0,0.0,91,0.00,,,0.00,VWS V13.01,2013-04-05 12:02:00,
2013-04-05 07:03:00,36.7,34.3,31.01,North,0,0.0,0.0,91,0.00,,,0.00,VWS V13.01,2013-04-05 12:03:00,
2013-04-05 07:05:00,36.7,34.3,31.01,North,0,0.0,0.0,91,0.00,,,0.00,VWS V13.01,2013-04-05 12:05:00,
2013-04-05 07:06:00,36.7,34.3,31.01,North,0,0.0,0.0,91,0.00,,,0.00,VWS V13.01,2013-04-05 12:06:00,
2013-04-05 07:07:00,36.7,34.3,31.01,North,0,0.0,0.0,91,0.00,,,0.00,VWS V13.01,2013-04-05 12:07:00,
2013-04-05 07:08:00,36.5,34.1,31.01,North,0,0.0,0.0,91,0.00,,,0.00,VWS V13.01,2013-04-05 12:08:00,
2013-04-05 07:10:00,36.7,34.3,31.01,North,0,0.0,0.0,91,0.00,,,0.00,VWS V13.01,2013-04-05 12:10:00,
2013-04-05 07:12:00,37.0,34.7,31.01,North,0,0.0,0.0,91,0.00,,,0.00,VWS V13.01,2013-04-05 12:12:00,
2013-04-05 07:13:00,37.2,34.8,31.01,North,0,0.0,0.0,91,0.00,,,0.00,VWS V13.01,2013-04-05 12:13:00,
2013-04-05 07:15:00,37.8,35.4,31.01,North,0,0.0,0.0,91,0.00,,,0.00,VWS V13.01,2013-04-05 12:15:00,
2013-04-05 07:17:00,38.1,35.7,31.01,North,0,0.0,0.0,91,0.00,,,0.00,VWS V13.01,2013-04-05 12:17:00,
2013-04-05 07:18:00,38.3,35.9,31.01,North,0,0.0,0.0,91,0.00,,,0.00,VWS V13.01,2013-04-05 12:18:00,
2013-04-05 07:20:00,38.8,36.4,31.01,North,0,0.0,0.0,91,0.00,,,0.00,VWS V13.01,2013-04-05 12:20:00,
2013-04-05 07:22:00,39.2,35.1,31.01,North,0,0.0,0.0,85,0.00,,,0.00,VWS V13.01,2013-04-05 12:22:00,
2013-04-05 07:23:00,39.6,35.4,31.01,North,0,0.0,0.0,85,0.00,,,0.00,VWS V13.01,2013-04-05 12:23:00,
2013-04-05 07:25:00,40.5,36.3,31.01,North,0,0.0,0.0,85,0.00,,,0.00,VWS V13.01,2013-04-05 12:25:00,
2013-04-05 07:27:00,41.0,36.8,31.01,North,0,0.0,0.0,85,0.00,,,0.00,VWS V13.01,2013-04-05 12:27:00,
2013-04-05 07:28:00,41.5,37.4,31.01,North,0,0.0,0.0,85,0.00,,,0.00,VWS V13.01,2013-04-05 12:28:00,
2013-04-05 07:30:00,42.1,37.9,31.01,North,0,0.0,0.0,85,0.00,,,0.00,VWS V13.01,2013-04-05 12:30:00,
2013-04-05 07:32:00,42.4,38.3,31.01,North,0,0.0,0.0,85,0.00,,,0.00,VWS V13.01,2013-04-05 12:32:00,
2013-04-05 07:33:00,42.8,38.6,31.01,North,0,0.0,0.0,85,0.00,,,0.00,VWS V13.01,2013-04-05 12:33:00,
2013-04-05 07:35:00,43.2,39.0,31.01,North,0,0.0,0.0,85,0.00,,,0.00,VWS V13.01,2013-04-05 12:35:00,
2013-04-05 07:37:00,43.7,39.5,31.01,North,0,0.0,0.0,85,0.00,,,0.00,VWS V13.01,2013-04-05 12:37:00,
2013-04-05 07:38:00,44.1,39.8,31.01,North,0,0.0,0.0,85,0.00,,,0.00,VWS V13.01,2013-04-05 12:38:00,
2013-04-05 07:40:00,44.8,38.7,31.01,North,0,0.0,0.0,79,0.00,,,0.00,VWS V13.01,2013-04-05 12:40:00,
2013-04-05 07:42:00,45.5,39.4,31.01,North,0,0.0,0.0,79,0.00,,,0.00,VWS V13.01,2013-04-05 12:42:00,
2013-04-05 07:43:00,45.5,39.4,31.01,North,0,0.0,0.0,79,0.00,,,0.00,VWS V13.01,2013-04-05 12:43:00,
2013-04-05 07:45:00,46.6,40.4,31.01,North,0,0.0,0.0,79,0.00,,,0.00,VWS V13.01,2013-04-05 12:45:00,
2013-04-05 07:48:00,47.3,41.1,31.01,North,0,0.0,0.0,79,0.00,,,0.00,VWS V13.01,2013-04-05 12:48:00,
2013-04-05 07:49:00,47.7,41.5,31.01,North,0,0.0,0.0,79,0.00,,,0.00,VWS V13.01,2013-04-05 12:49:00,
2013-04-05 07:50:00,47.8,41.7,31.01,North,0,0.0,0.0,79,0.00,,,0.00,VWS V13.01,2013-04-05 12:50:00,
2013-04-05 07:53:00,48.6,40.3,31.01,North,0,0.0,0.0,73,0.00,,,0.00,VWS V13.01,2013-04-05 12:53:00,
2013-04-05 07:54:00,48.7,40.5,31.01,North,0,0.0,0.0,73,0.00,,,0.00,VWS V13.01,2013-04-05 12:54:00,
2013-04-05 07:55:00,49.1,40.8,31.01,North,0,0.0,0.0,73,0.00,,,0.00,VWS V13.01,2013-04-05 12:55:00,
2013-04-05 07:58:00,49.1,40.8,31.01,North,0,0.0,0.0,73,0.00,,,0.00,VWS V13.01,2013-04-05 12:58:00,
2013-04-05 08:00:00,48.9,40.7,31.01,North,0,0.0,0.0,73,0.00,,,0.00,VWS V13.01,2013-04-05 13:00:00,
2013-04-05 08:03:00,48.9,40.7,31.01,North,0,0.0,0.0,73,0.00,,,0.00,VWS V13.01,2013-04-05 13:03:00,
2013-04-05 08:05:00,48.4,40.1,31.01,North,0,0.0,0.0,73,0.00,,,0.00,VWS V13.01,2013-04-05 13:05:00,
2013-04-05 08:06:00,47.8,41.7,31.01,North,0,0.0,0.0,79,0.00,,,0.00,VWS V13.01,2013-04-05 13:06:00,
2013-04-05 08:08:00,47.3,41.1,31.01,North,0,0.0,0.0,79,0.00,,,0.00,VWS V13.01,2013-04-05 13:08:00,
2013-04-05 08:10:00,47.8,41.7,31.01,North,0,0.0,0.0,79,0.00,,,0.00,VWS V13.01,2013-04-05 13:10:00,
2013-04-05 08:11:00,48.0,41.8,31.01,North,0,0.0,0.0,79,0.00,,,0.00,VWS V13.01,2013-04-05 13:11:00,
2013-04-05 08:13:00,48.0,41.8,31.01,North,0,0.0,0.0,79,0.00,,,0.00,VWS V13.01,2013-04-05 13:13:00,
2013-04-05 08:15:00,48.2,40.0,31.01,North,0,0.0,0.0,73,0.00,,,0.00,VWS V13.01,2013-04-05 13:15:00,
2013-04-05 08:17:00,48.4,40.1,31.01,North,0,0.0,0.0,73,0.00,,,0.00,VWS V13.01,2013-04-05 13:17:00,
2013-04-05 08:18:00,47.5,41.3,31.01,North,0,0.0,0.0,79,0.00,,,0.00,VWS V13.01,2013-04-05 13:18:00,
2013-04-05 08:20:00,47.7,41.5,31.01,North,0,0.0,0.0,79,0.00,,,0.00,VWS V13.01,2013-04-05 13:20:00,
2013-04-05 08:23:00,47.5,41.3,31.01,North,0,0.0,0.0,79,0.00,,,0.00,VWS V13.01,2013-04-05 13:23:00,
2013-04-05 08:24:00,48.6,40.3,31.01,North,0,0.0,0.0,73,0.00,,,0.00,VWS V13.01,2013-04-05 13:24:00,
2013-04-05 08:25:00,48.0,41.8,31.01,North,0,0.0,0.0,79,0.00,,,0.00,VWS V13.01,2013-04-05 13:25:00,
2013-04-05 08:28:00,48.0,41.8,31.01,North,0,0.0,0.0,79,0.00,,,0.00,VWS V13.01,2013-04-05 13:28:00,
2013-04-05 08:29:00,48.0,41.8,31.01,North,0,0.0,0.0,79,0.00,,,0.00,VWS V13.01,2013-04-05 13:29:00,
2013-04-05 08:32:00,47.1,41.0,31.01,North,0,0.0,0.0,79,0.00,,,0.00,VWS V13.01,2013-04-05 13:32:00,
2013-04-05 08:33:00,46.9,40.8,31.01,North,0,0.0,0.0,79,0.00,,,0.00,VWS V13.01,2013-04-05 13:33:00,
2013-04-05 08:34:00,46.8,40.6,31.01,North,0,0.0,0.0,79,0.00,,,0.00,VWS V13.01,2013-04-05 13:34:00,
2013-04-05 08:38:00,48.0,41.8,31.01,North,0,0.0,0.0,79,0.00,,,0.00,VWS V13.01,2013-04-05 13:38:00,
2013-04-05 08:40:00,47.8,41.7,31.01,North,0,0.0,0.0,79,0.00,,,0.00,VWS V13.01,2013-04-05 13:40:00,
2013-04-05 08:43:00,47.5,41.3,31.01,North,0,0.0,0.0,79,0.00,,,0.00,VWS V13.01,2013-04-05 13:43:00,
2013-04-05 08:45:00,48.4,40.1,31.01,North,0,0.0,0.0,73,0.00,,,0.00,VWS V13.01,2013-04-05 13:45:00,
2013-04-05 08:48:00,49.8,41.5,31.01,North,0,0.0,0.0,73,0.00,,,0.00,VWS V13.01,2013-04-05 13:48:00,
2013-04-05 08:50:00,49.3,41.0,31.01,North,0,0.0,0.0,73,0.00,,,0.00,VWS V13.01,2013-04-05 13:50:00,
2013-04-05 08:53:00,50.9,42.6,31.01,North,0,0.0,0.0,73,0.00,,,0.00,VWS V13.01,2013-04-05 13:53:00,
2013-04-05 08:55:00,51.3,42.9,31.01,North,0,0.0,0.0,73,0.00,,,0.00,VWS V13.01,2013-04-05 13:55:00,
2013-04-05 08:58:00,52.0,43.6,31.01,North,0,0.0,0.0,73,0.00,,,0.00,VWS V13.01,2013-04-05 13:58:00,
2013-04-05 09:00:00,53.4,45.0,31.01,North,0,0.0,0.0,73,0.00,,,0.00,VWS V13.01,2013-04-05 14:00:00,
2013-04-05 09:03:00,51.1,42.7,31.01,North,0,0.0,0.0,73,0.00,,,0.00,VWS V13.01,2013-04-05 14:03:00,
2013-04-05 09:04:00,52.9,44.5,31.01,North,0,0.0,0.0,73,0.00,,,0.00,VWS V13.01,2013-04-05 14:04:00,
2013-04-05 09:05:00,52.3,44.0,31.01,North,0,0.0,0.0,73,0.00,,,0.00,VWS V13.01,2013-04-05 14:05:00,
2013-04-05 09:08:00,53.4,45.0,31.01,North,0,0.0,0.0,73,0.00,,,0.00,VWS V13.01,2013-04-05 14:08:00,
2013-04-05 09:09:00,52.7,44.3,31.01,North,0,0.0,0.0,73,0.00,,,0.00,VWS V13.01,2013-04-05 14:09:00,
2013-04-05 09:10:00,54.0,43.3,31.01,North,0,0.0,0.0,67,0.00,,,0.00,VWS V13.01,2013-04-05 14:10:00,
2013-04-05 09:13:00,54.0,43.3,31.01,North,0,0.0,0.0,67,0.00,,,0.00,VWS V13.01,2013-04-05 14:13:00,
2013-04-05 09:14:00,53.2,44.8,31.01,North,0,0.0,0.0,73,0.00,,,0.00,VWS V13.01,2013-04-05 14:14:00,
2013-04-05 09:15:00,54.3,43.6,31.01,North,0,0.0,0.0,67,0.00,,,0.00,VWS V13.01,2013-04-05 14:15:00,
2013-04-05 09:19:00,55.0,44.3,31.01,North,0,0.0,0.0,67,0.00,,,0.00,VWS V13.01,2013-04-05 14:19:00,
2013-04-05 09:20:00,54.1,43.4,31.01,North,0,0.0,0.0,67,0.00,,,0.00,VWS V13.01,2013-04-05 14:20:00,
2013-04-05 09:21:00,55.2,44.5,31.01,North,0,0.0,0.0,67,0.00,,,0.00,VWS V13.01,2013-04-05 14:21:00,
2013-04-05 09:24:00,53.6,42.9,31.01,North,0,0.0,0.0,67,0.00,,,0.00,VWS V13.01,2013-04-05 14:24:00,
2013-04-05 09:25:00,54.1,43.4,31.01,North,0,0.0,0.0,67,0.00,,,0.00,VWS V13.01,2013-04-05 14:25:00,
2013-04-05 09:26:00,54.0,43.3,31.01,North,0,0.0,0.0,67,0.00,,,0.00,VWS V13.01,2013-04-05 14:26:00,
2013-04-05 09:29:00,54.1,43.4,31.01,North,0,0.0,0.0,67,0.00,,,0.00,VWS V13.01,2013-04-05 14:29:00,
2013-04-05 09:30:00,54.1,43.4,31.01,North,0,0.0,0.0,67,0.00,,,0.00,VWS V13.01,2013-04-05 14:30:00,
2013-04-05 09:33:00,55.8,45.0,31.01,North,0,0.0,0.0,67,0.00,,,0.00,VWS V13.01,2013-04-05 14:33:00,
2013-04-05 09:35:00,55.9,45.2,31.01,North,0,0.0,0.0,67,0.00,,,0.00,VWS V13.01,2013-04-05 14:35:00,
2013-04-05 09:36:00,57.2,43.9,31.01,North,0,0.0,0.0,61,0.00,,,0.00,VWS V13.01,2013-04-05 14:36:00,
2013-04-05 09:38:00,57.0,46.2,31.01,North,0,0.0,0.0,67,0.00,,,0.00,VWS V13.01,2013-04-05 14:38:00,
2013-04-05 09:40:00,56.3,45.5,31.01,North,0,0.0,0.0,67,0.00,,,0.00,VWS V13.01,2013-04-05 14:40:00,
2013-04-05 09:41:00,56.8,46.0,31.01,North,0,0.0,0.0,67,0.00,,,0.00,VWS V13.01,2013-04-05 14:41:00,
2013-04-05 09:43:00,57.7,44.4,31.01,North,0,0.0,0.0,61,0.00,,,0.00,VWS V13.01,2013-04-05 14:43:00,
2013-04-05 09:45:00,57.2,43.9,31.01,North,0,0.0,0.0,61,0.00,,,0.00,VWS V13.01,2013-04-05 14:45:00,
2013-04-05 09:46:00,57.0,46.2,31.01,North,0,0.0,0.0,67,0.00,,,0.00,VWS V13.01,2013-04-05 14:46:00,
2013-04-05 09:47:00,57.2,43.9,31.01,North,0,0.0,0.0,61,0.00,,,0.00,VWS V13.01,2013-04-05 14:47:00,
2013-04-05 09:48:00,57.6,44.2,31.01,North,0,0.0,0.0,61,0.00,,,0.00,VWS V13.01,2013-04-05 14:48:00,
2013-04-05 09:50:00,57.2,43.9,31.01,North,0,0.0,0.0,61,0.00,,,0.00,VWS V13.01,2013-04-05 14:50:00,
2013-04-05 09:52:00,57.2,43.9,31.01,North,0,0.0,0.0,61,0.00,,,0.00,VWS V13.01,2013-04-05 14:52:00,
2013-04-05 09:53:00,57.0,46.2,31.01,North,0,0.0,0.0,67,0.00,,,0.00,VWS V13.01,2013-04-05 14:53:00,
2013-04-05 09:56:00,57.4,44.1,31.01,North,0,0.0,0.0,61,0.00,,,0.00,VWS V13.01,2013-04-05 14:56:00,
2013-04-05 09:57:00,58.1,44.7,31.01,North,0,0.0,0.0,61,0.00,,,0.00,VWS V13.01,2013-04-05 14:57:00,
2013-04-05 09:58:00,58.3,44.9,31.01,North,0,0.0,0.0,61,0.00,,,0.00,VWS V13.01,2013-04-05 14:58:00,
2013-04-05 10:01:00,59.4,45.9,31.01,North,0,0.0,0.0,61,0.00,,,0.00,VWS V13.01,2013-04-05 15:01:00,
2013-04-05 10:02:00,58.8,45.4,31.01,North,0,0.0,0.0,61,0.00,,,0.00,VWS V13.01,2013-04-05 15:02:00,
2013-04-05 10:04:00,58.3,44.9,31.01,North,0,0.0,0.0,61,0.00,,,0.00,VWS V13.01,2013-04-05 15:04:00,
2013-04-05 10:06:00,59.4,45.9,31.01,North,0,0.0,0.0,61,0.00,,,0.00,VWS V13.01,2013-04-05 15:06:00,
2013-04-05 10:07:00,59.9,46.4,31.01,North,0,0.0,0.0,61,0.00,,,0.00,VWS V13.01,2013-04-05 15:07:00,
2013-04-05 10:10:00,60.6,47.1,31.01,North,0,0.0,0.0,61,0.00,,,0.00,VWS V13.01,2013-04-05 15:10:00,
2013-04-05 10:11:00,61.2,47.6,31.01,North,0,0.0,0.0,61,0.00,,,0.00,VWS V13.01,2013-04-05 15:11:00,
2013-04-05 10:13:00,60.1,46.6,31.01,North,0,0.0,0.0,61,0.00,,,0.00,VWS V13.01,2013-04-05 15:13:00,
2013-04-05 10:14:00,60.1,46.6,31.01,North,0,0.0,0.0,61,0.00,,,0.00,VWS V13.01,2013-04-05 15:14:00,
2013-04-05 10:15:00,59.5,46.1,31.01,North,0,0.0,0.0,61,0.00,,,0.00,VWS V13.01,2013-04-05 15:15:00,
2013-04-05 10:17:00,60.1,46.6,31.01,North,0,0.0,0.0,61,0.00,,,0.00,VWS V13.01,2013-04-05 15:17:00,
2013-04-05 10:18:00,59.5,46.1,31.01,North,0,0.0,0.0,61,0.00,,,0.00,VWS V13.01,2013-04-05 15:18:00,
2013-04-05 10:19:00,59.9,46.4,31.01,North,0,0.0,0.0,61,0.00,,,0.00,VWS V13.01,2013-04-05 15:19:00,
2013-04-05 10:20:00,59.7,46.3,31.01,North,0,0.0,0.0,61,0.00,,,0.00,VWS V13.01,2013-04-05 15:20:00,
2013-04-05 10:23:00,59.7,46.3,31.01,North,0,0.0,0.0,61,0.00,,,0.00,VWS V13.01,2013-04-05 15:23:00,
2013-04-05 10:24:00,60.1,46.6,31.01,North,0,0.0,0.0,61,0.00,,,0.00,VWS V13.01,2013-04-05 15:24:00,
2013-04-05 10:25:00,60.1,46.6,31.01,North,0,0.0,0.0,61,0.00,,,0.00,VWS V13.01,2013-04-05 15:25:00,
2013-04-05 10:28:00,60.8,47.3,31.01,North,0,0.0,0.0,61,0.00,,,0.00,VWS V13.01,2013-04-05 15:28:00,
2013-04-05 10:29:00,61.3,47.8,31.01,North,0,0.0,0.0,61,0.00,,,0.00,VWS V13.01,2013-04-05 15:29:00,
2013-04-05 10:30:00,61.7,48.1,31.01,North,0,0.0,0.0,61,0.00,,,0.00,VWS V13.01,2013-04-05 15:30:00,
2013-04-05 10:33:00,61.7,48.1,31.01,North,0,0.0,0.0,61,0.00,,,0.00,VWS V13.01,2013-04-05 15:33:00,
2013-04-05 10:34:00,61.7,48.1,31.01,North,0,0.0,0.0,61,0.00,,,0.00,VWS V13.01,2013-04-05 15:34:00,
2013-04-05 10:35:00,61.7,48.1,31.01,North,0,0.0,0.0,61,0.00,,,0.00,VWS V13.01,2013-04-05 15:35:00,
2013-04-05 10:38:00,61.3,47.8,31.01,North,0,0.0,0.0,61,0.00,,,0.00,VWS V13.01,2013-04-05 15:38:00,
2013-04-05 10:39:00,60.6,47.1,31.01,North,0,0.0,0.0,61,0.00,,,0.00,VWS V13.01,2013-04-05 15:39:00,
2013-04-05 10:40:00,60.8,47.3,31.01,North,0,0.0,0.0,61,0.00,,,0.00,VWS V13.01,2013-04-05 15:40:00,
2013-04-05 10:43:00,62.1,48.5,31.01,North,0,0.0,0.0,61,0.00,,,0.00,VWS V13.01,2013-04-05 15:43:00,
2013-04-05 10:45:00,62.4,48.8,31.01,North,0,0.0,0.0,61,0.00,,,0.00,VWS V13.01,2013-04-05 15:45:00,
2013-04-05 10:46:00,62.4,48.8,31.01,North,0,0.0,0.0,61,0.00,,,0.00,VWS V13.01,2013-04-05 15:46:00,
2013-04-05 10:49:00,63.5,47.1,31.01,North,0,0.0,0.0,55,0.00,,,0.00,VWS V13.01,2013-04-05 15:49:00,
2013-04-05 10:51:00,63.5,47.1,31.01,North,0,0.0,0.0,55,0.00,,,0.00,VWS V13.01,2013-04-05 15:51:00,
2013-04-05 10:55:00,60.8,47.3,31.01,North,0,0.0,0.0,61,0.00,,,0.00,VWS V13.01,2013-04-05 15:55:00,
2013-04-05 10:56:00,61.3,47.8,31.01,North,0,0.0,0.0,61,0.00,,,0.00,VWS V13.01,2013-04-05 15:56:00,
2013-04-05 10:57:00,61.2,47.6,31.01,North,0,0.0,0.0,61,0.00,,,0.00,VWS V13.01,2013-04-05 15:57:00,
2013-04-05 11:00:00,62.6,46.2,31.01,North,0,0.0,0.0,55,0.00,,,0.00,VWS V13.01,2013-04-05 16:00:00,
2013-04-05 11:01:00,63.1,46.7,31.01,North,0,0.0,0.0,55,0.00,,,0.00,VWS V13.01,2013-04-05 16:01:00,
2013-04-05 11:02:00,63.0,46.6,31.01,North,0,0.0,0.0,55,0.00,,,0.00,VWS V13.01,2013-04-05 16:02:00,
2013-04-05 11:05:00,63.0,46.6,31.01,North,0,0.0,0.0,55,0.00,,,0.00,VWS V13.01,2013-04-05 16:05:00,
2013-04-05 11:06:00,63.3,46.9,31.01,North,0,0.0,0.0,55,0.00,,,0.00,VWS V13.01,2013-04-05 16:06:00,
2013-04-05 11:07:00,63.3,46.9,31.01,North,0,0.0,0.0,55,0.00,,,0.00,VWS V13.01,2013-04-05 16:07:00,
2013-04-05 11:10:00,64.8,48.2,31.01,North,0,0.0,0.0,55,0.00,,,0.00,VWS V13.01,2013-04-05 16:10:00,
2013-04-05 11:11:00,65.1,48.6,31.01,North,0,0.0,0.0,55,0.00,,,0.00,VWS V13.01,2013-04-05 16:11:00,
2013-04-05 11:12:00,66.2,46.5,31.01,North,0,0.0,0.0,49,0.00,,,0.00,VWS V13.01,2013-04-05 16:12:00,
2013-04-05 11:13:00,66.4,46.7,31.01,North,0,0.0,0.0,49,0.00,,,0.00,VWS V13.01,2013-04-05 16:13:00,
2013-04-05 11:15:00,66.0,49.4,31.01,North,0,0.0,0.0,55,0.00,,,0.00,VWS V13.01,2013-04-05 16:15:00,
2013-04-05 11:16:00,65.1,48.6,31.01,North,0,0.0,0.0,55,0.00,,,0.00,VWS V13.01,2013-04-05 16:16:00,
2013-04-05 11:17:00,64.9,48.4,31.01,North,0,0.0,0.0,55,0.00,,,0.00,VWS V13.01,2013-04-05 16:17:00,
2013-04-05 11:18:00,65.5,48.9,31.01,North,0,0.0,0.0,55,0.00,,,0.00,VWS V13.01,2013-04-05 16:18:00,
2013-04-05 11:20:00,65.3,48.7,31.01,North,0,0.0,0.0,55,0.00,,,0.00,VWS V13.01,2013-04-05 16:20:00,
2013-04-05 11:21:00,65.7,49.1,31.01,North,0,0.0,0.0,55,0.00,,,0.00,VWS V13.01,2013-04-05 16:21:00,
2013-04-05 11:22:00,65.5,48.9,31.01,North,0,0.0,0.0,55,0.00,,,0.00,VWS V13.01,2013-04-05 16:22:00,
2013-04-05 11:23:00,65.8,49.2,31.01,North,0,0.0,0.0,55,0.00,,,0.00,VWS V13.01,2013-04-05 16:23:00,
2013-04-05 11:25:00,67.3,47.5,31.01,North,0,0.0,0.0,49,0.00,,,0.00,VWS V13.01,2013-04-05 16:25:00,
2013-04-05 11:27:00,66.9,47.2,31.01,North,0,0.0,0.0,49,0.00,,,0.00,VWS V13.01,2013-04-05 16:27:00,
2013-04-05 11:28:00,66.9,47.2,31.01,North,0,0.0,0.0,49,0.00,,,0.00,VWS V13.01,2013-04-05 16:28:00,
2013-04-05 11:31:00,66.2,46.5,31.01,North,0,0.0,0.0,49,0.00,,,0.00,VWS V13.01,2013-04-05 16:31:00,
2013-04-05 11:32:00,66.2,46.5,31.01,North,0,0.0,0.0,49,0.00,,,0.00,VWS V13.01,2013-04-05 16:32:00,
2013-04-05 11:33:00,66.2,46.5,31.01,North,0,0.0,0.0,49,0.00,,,0.00,VWS V13.01,2013-04-05 16:33:00,
2013-04-05 11:36:00,64.9,48.4,31.01,North,0,0.0,0.0,55,0.00,,,0.00,VWS V13.01,2013-04-05 16:36:00,
2013-04-05 11:37:00,65.5,48.9,31.01,North,0,0.0,0.0,55,0.00,,,0.00,VWS V13.01,2013-04-05 16:37:00,
2013-04-05 11:38:00,65.8,49.2,31.01,North,0,0.0,0.0,55,0.00,,,0.00,VWS V13.01,2013-04-05 16:38:00,
2013-04-05 11:42:00,65.7,49.1,31.01,North,0,0.0,0.0,55,0.00,,,0.00,VWS V13.01,2013-04-05 16:42:00,
2013-04-05 11:43:00,65.7,49.1,31.01,North,0,0.0,0.0,55,0.00,,,0.00,VWS V13.01,2013-04-05 16:43:00,
2013-04-05 11:47:00,67.6,47.8,31.01,North,0,0.0,0.0,49,0.00,,,0.00,VWS V13.01,2013-04-05 16:47:00,
2013-04-05 11:48:00,67.8,48.0,31.01,North,0,0.0,0.0,49,0.00,,,0.00,VWS V13.01,2013-04-05 16:48:00,
2013-04-05 11:52:00,69.4,49.5,31.01,North,0,0.0,0.0,49,0.00,,,0.00,VWS V13.01,2013-04-05 16:52:00,
2013-04-05 11:53:00,68.9,49.0,31.01,North,0,0.0,0.0,49,0.00,,,0.00,VWS V13.01,2013-04-05 16:53:00,
2013-04-05 11:57:00,69.6,49.6,31.01,North,0,0.0,0.0,49,0.00,,,0.00,VWS V13.01,2013-04-05 16:57:00,
2013-04-05 11:58:00,69.6,49.6,31.01,North,0,0.0,0.0,49,0.00,,,0.00,VWS V13.01,2013-04-05 16:58:00,
2013-04-05 12:03:00,68.4,48.5,31.01,North,0,0.0,0.0,49,0.00,,,0.00,VWS V13.01,2013-04-05 17:03:00,
2013-04-05 12:08:00,68.2,48.3,31.01,North,0,0.0,0.0,49,0.00,,,0.00,VWS V13.01,2013-04-05 17:08:00,
2013-04-05 12:09:00,67.8,48.0,31.01,North,0,0.0,0.0,49,0.00,,,0.00,VWS V13.01,2013-04-05 17:09:00,
2013-04-05 12:13:00,68.2,48.3,31.01,North,0,0.0,0.0,49,0.00,,,0.00,VWS V13.01,2013-04-05 17:13:00,
2013-04-05 12:14:00,68.7,48.8,31.01,North,0,0.0,0.0,49,0.00,,,0.00,VWS V13.01,2013-04-05 17:14:00,
2013-04-05 12:15:00,68.7,48.8,31.01,North,0,0.0,0.0,49,0.00,,,0.00,VWS V13.01,2013-04-05 17:15:00,
2013-04-05 12:18:00,67.8,48.0,31.01,North,0,0.0,0.0,49,0.00,,,0.00,VWS V13.01,2013-04-05 17:18:00,
2013-04-05 12:19:00,68.9,49.0,31.01,North,0,0.0,0.0,49,0.00,,,0.00,VWS V13.01,2013-04-05 17:19:00,
2013-04-05 12:21:00,69.1,49.1,31.01,North,0,0.0,0.0,49,0.00,,,0.00,VWS V13.01,2013-04-05 17:21:00,
2013-04-05 12:23:00,70.0,50.0,31.01,North,0,0.0,0.0,49,0.00,,,0.00,VWS V13.01,2013-04-05 17:23:00,
2013-04-05 12:25:00,71.4,51.3,31.01,North,0,0.0,0.0,49,0.00,,,0.00,VWS V13.01,2013-04-05 17:25:00,
2013-04-05 12:26:00,71.8,48.1,31.01,North,0,0.0,0.0,43,0.00,,,0.00,VWS V13.01,2013-04-05 17:26:00,
2013-04-05 12:28:00,70.0,50.0,31.01,North,0,0.0,0.0,49,0.00,,,0.00,VWS V13.01,2013-04-05 17:28:00,
2013-04-05 12:30:00,69.8,49.8,31.01,North,0,0.0,0.0,49,0.00,,,0.00,VWS V13.01,2013-04-05 17:30:00,
2013-04-05 12:31:00,70.0,50.0,31.01,North,0,0.0,0.0,49,0.00,,,0.00,VWS V13.01,2013-04-05 17:31:00,
2013-04-05 12:33:00,70.0,50.0,31.01,North,0,0.0,0.0,49,0.00,,,0.00,VWS V13.01,2013-04-05 17:33:00,
2013-04-05 12:35:00,71.2,51.1,31.01,North,0,0.0,0.0,49,0.00,,,0.00,VWS V13.01,2013-04-05 17:35:00,
2013-04-05 12:36:00,70.9,50.8,31.01,North,0,0.0,0.0,49,0.00,,,0.00,VWS V13.01,2013-04-05 17:36:00,
2013-04-05 12:38:00,69.8,49.8,31.01,North,0,0.0,0.0,49,0.00,,,0.00,VWS V13.01,2013-04-05 17:38:00,
2013-04-05 12:39:00,68.5,48.6,31.01,North,0,0.0,0.0,49,0.00,,,0.00,VWS V13.01,2013-04-05 17:39:00,
2013-04-05 12:40:00,67.1,47.3,31.01,North,0,0.0,0.0,49,0.00,,,0.00,VWS V13.01,2013-04-05 17:40:00,
2013-04-05 12:42:00,68.0,48.2,31.01,North,0,0.0,0.0,49,0.00,,,0.00,VWS V13.01,2013-04-05 17:42:00,
2013-04-05 12:43:00,68.2,48.3,31.01,North,0,0.0,0.0,49,0.00,,,0.00,VWS V13.01,2013-04-05 17:43:00,
2013-04-05 12:44:00,67.1,47.3,31.01,North,0,0.0,0.0,49,0.00,,,0.00,VWS V13.01,2013-04-05 17:44:00,
2013-04-05 12:46:00,66.7,47.0,31.01,North,0,0.0,0.0,49,0.00,,,0.00,VWS V13.01,2013-04-05 17:46:00,
2013-04-05 12:47:00,67.1,47.3,31.01,North,0,0.0,0.0,49,0.00,,,0.00,VWS V13.01,2013-04-05 17:47:00,
2013-04-05 12:48:00,67.3,47.5,31.01,North,0,0.0,0.0,49,0.00,,,0.00,VWS V13.01,2013-04-05 17:48:00,
2013-04-05 12:50:00,68.5,48.6,31.01,North,0,0.0,0.0,49,0.00,,,0.00,VWS V13.01,2013-04-05 17:50:00,
2013-04-05 12:51:00,67.1,47.3,31.01,North,0,0.0,0.0,49,0.00,,,0.00,VWS V13.01,2013-04-05 17:51:00,
2013-04-05 12:52:00,68.4,48.5,31.01,North,0,0.0,0.0,49,0.00,,,0.00,VWS V13.01,2013-04-05 17:52:00,
2013-04-05 12:53:00,67.5,47.7,31.01,North,0,0.0,0.0,49,0.00,,,0.00,VWS V13.01,2013-04-05 17:53:00,
2013-04-05 12:55:00,67.8,48.0,31.01,North,0,0.0,0.0,49,0.00,,,0.00,VWS V13.01,2013-04-05 17:55:00,
2013-04-05 12:56:00,67.5,47.7,31.01,North,0,0.0,0.0,49,0.00,,,0.00,VWS V13.01,2013-04-05 17:56:00,
2013-04-05 12:57:00,67.3,47.5,31.01,North,0,0.0,0.0,49,0.00,,,0.00,VWS V13.01,2013-04-05 17:57:00,
2013-04-05 12:58:00,67.1,47.3,31.01,North,0,0.0,0.0,49,0.00,,,0.00,VWS V13.01,2013-04-05 17:58:00,
2013-04-05 13:00:00,67.6,47.8,31.01,North,0,0.0,0.0,49,0.00,,,0.00,VWS V13.01,2013-04-05 18:00:00,
2013-04-05 13:01:00,67.8,48.0,31.01,North,0,0.0,0.0,49,0.00,,,0.00,VWS V13.01,2013-04-05 18:01:00,
2013-04-05 13:02:00,68.0,48.2,31.01,North,0,0.0,0.0,49,0.00,,,0.00,VWS V13.01,2013-04-05 18:02:00,
2013-04-05 13:04:00,67.6,47.8,31.01,North,0,0.0,0.0,49,0.00,,,0.00,VWS V13.01,2013-04-05 18:04:00,
2013-04-05 13:05:00,68.4,48.5,31.01,North,0,0.0,0.0,49,0.00,,,0.00,VWS V13.01,2013-04-05 18:05:00,
2013-04-05 13:07:00,68.4,48.5,31.01,North,0,0.0,0.0,49,0.00,,,0.00,VWS V13.01,2013-04-05 18:07:00,
2013-04-05 13:09:00,67.5,47.7,31.01,North,0,0.0,0.0,49,0.00,,,0.00,VWS V13.01,2013-04-05 18:09:00,
2013-04-05 13:10:00,67.8,48.0,31.01,North,0,0.0,0.0,49,0.00,,,0.00,VWS V13.01,2013-04-05 18:10:00,
2013-04-05 13:12:00,69.4,49.5,31.01,North,0,0.0,0.0,49,0.00,,,0.00,VWS V13.01,2013-04-05 18:12:00,
2013-04-05 13:14:00,68.4,48.5,31.01,North,0,0.0,0.0,49,0.00,,,0.00,VWS V13.01,2013-04-05 18:14:00,
2013-04-05 13:15:00,68.0,48.2,31.01,North,0,0.0,0.0,49,0.00,,,0.00,VWS V13.01,2013-04-05 18:15:00,
2013-04-05 13:17:00,68.0,48.2,31.01,North,0,0.0,0.0,49,0.00,,,0.00,VWS V13.01,2013-04-05 18:17:00,
2013-04-05 13:20:00,68.5,48.6,31.01,North,0,0.0,0.0,49,0.00,,,0.00,VWS V13.01,2013-04-05 18:20:00,
2013-04-05 13:22:00,69.4,49.5,31.01,North,0,0.0,0.0,49,0.00,,,0.00,VWS V13.01,2013-04-05 18:22:00,
2013-04-05 13:25:00,68.0,48.2,31.01,North,0,0.0,0.0,49,0.00,,,0.00,VWS V13.01,2013-04-05 18:25:00,
2013-04-05 13:27:00,68.2,48.3,31.01,North,0,0.0,0.0,49,0.00,,,0.00,VWS V13.01,2013-04-05 18:27:00,
2013-04-05 13:30:00,68.4,48.5,31.01,North,0,0.0,0.0,49,0.00,,,0.00,VWS V13.01,2013-04-05 18:30:00,
2013-04-05 13:32:00,67.5,47.7,31.01,North,0,0.0,0.0,49,0.00,,,0.00,VWS V13.01,2013-04-05 18:32:00,
2013-04-05 13:33:00,67.5,47.7,31.01,North,0,0.0,0.0,49,0.00,,,0.00,VWS V13.01,2013-04-05 18:33:00,
2013-04-05 13:35:00,67.6,47.8,31.01,North,0,0.0,0.0,49,0.00,,,0.00,VWS V13.01,2013-04-05 18:35:00,
2013-04-05 13:36:00,68.2,48.3,31.01,North,0,0.0,0.0,49,0.00,,,0.00,VWS V13.01,2013-04-05 18:36:00,
2013-04-05 13:37:00,69.4,49.5,31.01,North,0,0.0,0.0,49,0.00,,,0.00,VWS V13.01,2013-04-05 18:37:00,
2013-04-05 13:38:00,69.6,49.6,31.01,North,0,0.0,0.0,49,0.00,,,0.00,VWS V13.01,2013-04-05 18:38:00,
2013-04-05 13:40:00,70.3,50.3,31.01,North,0,0.0,0.0,49,0.00,,,0.00,VWS V13.01,2013-04-05 18:40:00,
2013-04-05 13:41:00,69.3,49.3,31.01,North,0,0.0,0.0,49,0.00,,,0.00,VWS V13.01,2013-04-05 18:41:00,
2013-04-05 13:42:00,66.9,47.2,31.01,North,0,0.0,0.0,49,0.00,,,0.00,VWS V13.01,2013-04-05 18:42:00,
2013-04-05 13:43:00,67.1,47.3,31.01,North,0,0.0,0.0,49,0.00,,,0.00,VWS V13.01,2013-04-05 18:43:00,
2013-04-05 13:45:00,66.9,47.2,31.01,North,0,0.0,0.0,49,0.00,,,0.00,VWS V13.01,2013-04-05 18:45:00,
2013-04-05 13:46:00,67.3,47.5,31.01,North,0,0.0,0.0,49,0.00,,,0.00,VWS V13.01,2013-04-05 18:46:00,
2013-04-05 13:47:00,66.6,46.8,31.01,North,0,0.0,0.0,49,0.00,,,0.00,VWS V13.01,2013-04-05 18:47:00,
2013-04-05 13:50:00,66.7,47.0,31.01,North,0,0.0,0.0,49,0.00,,,0.00,VWS V13.01,2013-04-05 18:50:00,
2013-04-05 13:51:00,67.1,47.3,31.01,North,0,0.0,0.0,49,0.00,,,0.00,VWS V13.01,2013-04-05 18:51:00,
2013-04-05 13:52:00,67.3,47.5,31.01,North,0,0.0,0.0,49,0.00,,,0.00,VWS V13.01,2013-04-05 18:52:00,
2013-04-05 13:55:00,67.3,47.5,31.01,North,0,0.0,0.0,49,0.00,,,0.00,VWS V13.01,2013-04-05 18:55:00,
2013-04-05 13:56:00,67.3,47.5,31.01,North,0,0.0,0.0,49,0.00,,,0.00,VWS V13.01,2013-04-05 18:56:00,
2013-04-05 13:57:00,67.5,47.7,31.01,North,0,0.0,0.0,49,0.00,,,0.00,VWS V13.01,2013-04-05 18:57:00,
2013-04-05 13:58:00,67.5,47.7,31.01,North,0,0.0,0.0,49,0.00,,,0.00,VWS V13.01,2013-04-05 18:58:00,
2013-04-05 14:00:00,68.4,48.5,31.01,North,0,0.0,0.0,49,0.00,,,0.00,VWS V13.01,2013-04-05 19:00:00,
2013-04-05 14:01:00,68.0,48.2,31.01,North,0,0.0,0.0,49,0.00,,,0.00,VWS V13.01,2013-04-05 19:01:00,
2013-04-05 14:02:00,68.0,48.2,31.01,North,0,0.0,0.0,49,0.00,,,0.00,VWS V13.01,2013-04-05 19:02:00,
2013-04-05 14:03:00,67.1,47.3,31.01,North,0,0.0,0.0,49,0.00,,,0.00,VWS V13.01,2013-04-05 19:03:00,
2013-04-05 14:05:00,66.9,47.2,31.01,North,0,0.0,0.0,49,0.00,,,0.00,VWS V13.01,2013-04-05 19:05:00,
2013-04-05 14:07:00,68.0,48.2,31.01,North,0,0.0,0.0,49,0.00,,,0.00,VWS V13.01,2013-04-05 19:07:00,
2013-04-05 14:08:00,69.3,49.3,31.01,North,0,0.0,0.0,49,0.00,,,0.00,VWS V13.01,2013-04-05 19:08:00,
2013-04-05 14:10:00,69.6,49.6,31.01,North,0,0.0,0.0,49,0.00,,,0.00,VWS V13.01,2013-04-05 19:10:00,
2013-04-05 14:12:00,70.0,50.0,31.01,North,0,0.0,0.0,49,0.00,,,0.00,VWS V13.01,2013-04-05 19:12:00,
2013-04-05 14:13:00,69.8,49.8,31.01,North,0,0.0,0.0,49,0.00,,,0.00,VWS V13.01,2013-04-05 19:13:00,
2013-04-05 14:15:00,69.1,49.1,31.01,North,0,0.0,0.0,49,0.00,,,0.00,VWS V13.01,2013-04-05 19:15:00,
2013-04-05 14:17:00,69.3,49.3,31.01,North,0,0.0,0.0,49,0.00,,,0.00,VWS V13.01,2013-04-05 19:17:00,
2013-04-05 14:18:00,69.8,49.8,31.01,North,0,0.0,0.0,49,0.00,,,0.00,VWS V13.01,2013-04-05 19:18:00,
2013-04-05 14:20:00,68.5,48.6,31.01,North,0,0.0,0.0,49,0.00,,,0.00,VWS V13.01,2013-04-05 19:20:00,
2013-04-05 14:22:00,67.8,48.0,31.01,North,0,0.0,0.0,49,0.00,,,0.00,VWS V13.01,2013-04-05 19:22:00,
2013-04-05 14:23:00,68.0,48.2,31.01,North,0,0.0,0.0,49,0.00,,,0.00,VWS V13.01,2013-04-05 19:23:00,
2013-04-05 14:25:00,67.6,47.8,31.01,North,0,0.0,0.0,49,0.00,,,0.00,VWS V13.01,2013-04-05 19:25:00,
2013-04-05 14:27:00,67.8,48.0,31.01,North,0,0.0,0.0,49,0.00,,,0.00,VWS V13.01,2013-04-05 19:27:00,
2013-04-05 14:28:00,66.9,47.2,31.01,North,0,0.0,0.0,49,0.00,,,0.00,VWS V13.01,2013-04-05 19:28:00,
2013-04-05 14:30:00,68.0,48.2,31.01,North,0,0.0,0.0,49,0.00,,,0.00,VWS V13.01,2013-04-05 19:30:00,
2013-04-05 14:32:00,68.0,48.2,31.01,North,0,0.0,0.0,49,0.00,,,0.00,VWS V13.01,2013-04-05 19:32:00,
2013-04-05 14:33:00,67.6,47.8,31.01,North,0,0.0,0.0,49,0.00,,,0.00,VWS V13.01,2013-04-05 19:33:00,
2013-04-05 14:36:00,68.4,48.5,31.01,North,0,0.0,0.0,49,0.00,,,0.00,VWS V13.01,2013-04-05 19:36:00,
2013-04-05 14:37:00,68.0,48.2,31.01,North,0,0.0,0.0,49,0.00,,,0.00,VWS V13.01,2013-04-05 19:37:00,
2013-04-05 14:38:00,67.8,48.0,31.01,North,0,0.0,0.0,49,0.00,,,0.00,VWS V13.01,2013-04-05 19:38:00,
2013-04-05 14:40:00,67.6,47.8,31.01,North,0,0.0,0.0,49,0.00,,,0.00,VWS V13.01,2013-04-05 19:40:00,
2013-04-05 14:41:00,67.6,47.8,31.01,North,0,0.0,0.0,49,0.00,,,0.00,VWS V13.01,2013-04-05 19:41:00,
2013-04-05 14:42:00,67.6,47.8,31.01,North,0,0.0,0.0,49,0.00,,,0.00,VWS V13.01,2013-04-05 19:42:00,
2013-04-05 14:43:00,68.2,48.3,31.01,North,0,0.0,0.0,49,0.00,,,0.00,VWS V13.01,2013-04-05 19:43:00,
2013-04-05 14:45:00,67.6,47.8,31.01,North,0,0.0,0.0,49,0.00,,,0.00,VWS V13.01,2013-04-05 19:45:00,
2013-04-05 14:46:00,67.5,47.7,31.01,North,0,0.0,0.0,49,0.00,,,0.00,VWS V13.01,2013-04-05 19:46:00,
2013-04-05 14:47:00,67.3,47.5,31.01,North,0,0.0,0.0,49,0.00,,,0.00,VWS V13.01,2013-04-05 19:47:00,
2013-04-05 14:48:00,67.5,47.7,31.01,North,0,0.0,0.0,49,0.00,,,0.00,VWS V13.01,2013-04-05 19:48:00,
2013-04-05 14:50:00,68.2,48.3,31.01,North,0,0.0,0.0,49,0.00,,,0.00,VWS V13.01,2013-04-05 19:50:00,
2013-04-05 14:51:00,68.4,48.5,31.01,North,0,0.0,0.0,49,0.00,,,0.00,VWS V13.01,2013-04-05 19:51:00,
2013-04-05 14:52:00,68.0,48.2,31.01,North,0,0.0,0.0,49,0.00,,,0.00,VWS V13.01,2013-04-05 19:52:00,
2013-04-05 14:53:00,68.0,48.2,31.01,North,0,0.0,0.0,49,0.00,,,0.00,VWS V13.01,2013-04-05 19:53:00,
2013-04-05 14:55:00,67.8,48.0,31.01,North,0,0.0,0.0,49,0.00,,,0.00,VWS V13.01,2013-04-05 19:55:00,
2013-04-05 14:56:00,67.6,47.8,31.01,North,0,0.0,0.0,49,0.00,,,0.00,VWS V13.01,2013-04-05 19:56:00,
2013-04-05 14:57:00,68.0,48.2,31.01,North,0,0.0,0.0,49,0.00,,,0.00,VWS V13.01,2013-04-05 19:57:00,
2013-04-05 14:58:00,67.8,48.0,31.01,North,0,0.0,0.0,49,0.00,,,0.00,VWS V13.01,2013-04-05 19:58:00,
2013-04-05 15:01:00,66.9,47.2,31.01,North,0,0.0,0.0,49,0.00,,,0.00,VWS V13.01,2013-04-05 20:01:00,
2013-04-05 15:02:00,66.9,47.2,31.01,North,0,0.0,0.0,49,0.00,,,0.00,VWS V13.01,2013-04-05 20:02:00,
2013-04-05 15:03:00,67.3,47.5,31.01,North,0,0.0,0.0,49,0.00,,,0.00,VWS V13.01,2013-04-05 20:03:00,
2013-04-05 15:06:00,68.4,48.5,31.01,North,0,0.0,0.0,49,0.00,,,0.00,VWS V13.01,2013-04-05 20:06:00,
2013-04-05 15:07:00,67.8,48.0,31.01,North,0,0.0,0.0,49,0.00,,,0.00,VWS V13.01,2013-04-05 20:07:00,
2013-04-05 15:08:00,67.6,47.8,31.01,North,0,0.0,0.0,49,0.00,,,0.00,VWS V13.01,2013-04-05 20:08:00,
2013-04-05 15:11:00,68.4,48.5,31.01,North,0,0.0,0.0,49,0.00,,,0.00,VWS V13.01,2013-04-05 20:11:00,
2013-04-05 15:12:00,68.2,48.3,31.01,North,0,0.0,0.0,49,0.00,,,0.00,VWS V13.01,2013-04-05 20:12:00,
2013-04-05 15:13:00,67.5,47.7,31.01,North,0,0.0,0.0,49,0.00,,,0.00,VWS V13.01,2013-04-05 20:13:00,
2013-04-05 15:17:00,67.6,47.8,31.01,North,0,0.0,0.0,49,0.00,,,0.00,VWS V13.01,2013-04-05 20:17:00,
2013-04-05 15:18:00,67.3,47.5,31.01,North,0,0.0,0.0,49,0.00,,,0.00,VWS V13.01,2013-04-05 20:18:00,
2013-04-05 15:19:00,67.3,47.5,31.01,North,0,0.0,0.0,49,0.00,,,0.00,VWS V13.01,2013-04-05 20:19:00,
2013-04-05 15:22:00,67.5,47.7,31.01,North,0,0.0,0.0,49,0.00,,,0.00,VWS V13.01,2013-04-05 20:22:00,
2013-04-05 15:23:00,67.1,47.3,31.01,North,0,0.0,0.0,49,0.00,,,0.00,VWS V13.01,2013-04-05 20:23:00,
2013-04-05 15:24:00,67.3,47.5,31.01,North,0,0.0,0.0,49,0.00,,,0.00,VWS V13.01,2013-04-05 20:24:00,
2013-04-05 15:27:00,68.2,48.3,30.98,North,0,0.0,0.0,49,0.00,,,0.00,VWS V13.01,2013-04-05 20:27:00,
2013-04-05 15:28:00,68.0,48.2,30.98,North,0,0.0,0.0,49,0.00,,,0.00,VWS V13.01,2013-04-05 20:28:00,
2013-04-05 15:29:00,68.0,48.2,30.98,North,0,0.0,0.0,49,0.00,,,0.00,VWS V13.01,2013-04-05 20:29:00,
2013-04-05 15:32:00,67.6,47.8,30.98,North,0,0.0,0.0,49,0.00,,,0.00,VWS V13.01,2013-04-05 20:32:00,
2013-04-05 15:33:00,67.5,47.7,30.98,North,0,0.0,0.0,49,0.00,,,0.00,VWS V13.01,2013-04-05 20:33:00,
2013-04-05 15:35:00,67.3,47.5,30.98,North,0,0.0,0.0,49,0.00,,,0.00,VWS V13.01,2013-04-05 20:35:00,
2013-04-05 15:37:00,67.1,47.3,30.98,North,0,0.0,0.0,49,0.00,,,0.00,VWS V13.01,2013-04-05 20:37:00,
2013-04-05 15:38:00,67.1,47.3,30.98,North,0,0.0,0.0,49,0.00,,,0.00,VWS V13.01,2013-04-05 20:38:00,
2013-04-05 15:39:00,67.1,47.3,30.98,North,0,0.0,0.0,49,0.00,,,0.00,VWS V13.01,2013-04-05 20:39:00,
2013-04-05 15:40:00,67.1,47.3,30.98,North,0,0.0,0.0,49,0.00,,,0.00,VWS V13.01,2013-04-05 20:40:00,
2013-04-05 15:43:00,67.3,47.5,30.98,North,0,0.0,0.0,49,0.00,,,0.00,VWS V13.01,2013-04-05 20:43:00,
2013-04-05 15:44:00,67.5,47.7,30.98,North,0,0.0,0.0,49,0.00,,,0.00,VWS V13.01,2013-04-05 20:44:00,
2013-04-05 15:45:00,67.5,47.7,30.98,North,0,0.0,0.0,49,0.00,,,0.00,VWS V13.01,2013-04-05 20:45:00,
2013-04-05 15:49:00,67.6,47.8,30.98,North,0,0.0,0.0,49,0.00,,,0.00,VWS V13.01,2013-04-05 20:49:00,
2013-04-05 15:50:00,67.5,47.7,30.98,North,0,0.0,0.0,49,0.00,,,0.00,VWS V13.01,2013-04-05 20:50:00,
2013-04-05 15:54:00,67.3,47.5,30.98,North,0,0.0,0.0,49,0.00,,,0.00,VWS V13.01,2013-04-05 20:54:00,
2013-04-05 15:55:00,67.3,47.5,30.98,North,0,0.0,0.0,49,0.00,,,0.00,VWS V13.01,2013-04-05 20:55:00,
2013-04-05 15:59:00,68.2,48.3,30.98,North,0,0.0,0.0,49,0.00,,,0.00,VWS V13.01,2013-04-05 20:59:00,
2013-04-05 16:00:00,67.3,47.5,30.98,North,0,0.0,0.0,49,0.00,,,0.00,VWS V13.01,2013-04-05 21:00:00,
2013-04-05 16:04:00,67.5,47.7,30.98,North,0,0.0,0.0,49,0.00,,,0.00,VWS V13.01,2013-04-05 21:04:00,
2013-04-05 16:05:00,67.5,47.7,30.98,North,0,0.0,0.0,49,0.00,,,0.00,VWS V13.01,2013-04-05 21:05:00,
2013-04-05 16:10:00,67.8,48.0,30.98,North,0,0.0,0.0,49,0.00,,,0.00,VWS V13.01,2013-04-05 21:10:00,
2013-04-05 16:15:00,67.8,48.0,30.95,North,0,0.0,0.0,49,0.00,,,0.00,VWS V13.01,2013-04-05 21:15:00,
2013-04-05 16:20:00,68.0,48.2,30.95,North,0,0.0,0.0,49,0.00,,,0.00,VWS V13.01,2013-04-05 21:20:00,
2013-04-05 16:25:00,67.6,47.8,30.95,North,0,0.0,0.0,49,0.00,,,0.00,VWS V13.01,2013-04-05 21:25:00,
2013-04-05 16:30:00,67.3,47.5,30.95,North,0,0.0,0.0,49,0.00,,,0.00,VWS V13.01,2013-04-05 21:30:00,
2013-04-05 16:31:00,67.6,47.8,30.95,North,0,0.0,0.0,49,0.00,,,0.00,VWS V13.01,2013-04-05 21:31:00,
2013-04-05 16:35:00,67.8,48.0,30.95,North,0,0.0,0.0,49,0.00,,,0.00,VWS V13.01,2013-04-05 21:35:00,
2013-04-05 16:36:00,67.8,48.0,30.95,North,0,0.0,0.0,49,0.00,,,0.00,VWS V13.01,2013-04-05 21:36:00,
2013-04-05 16:41:00,67.6,47.8,30.95,North,0,0.0,0.0,49,0.00,,,0.00,VWS V13.01,2013-04-05 21:41:00,
2013-04-05 16:42:00,67.5,47.7,30.95,North,0,0.0,0.0,49,0.00,,,0.00,VWS V13.01,2013-04-05 21:42:00,
2013-04-05 16:46:00,67.6,47.8,30.95,North,0,0.0,0.0,49,0.00,,,0.00,VWS V13.01,2013-04-05 21:46:00,
2013-04-05 16:47:00,67.3,47.5,30.95,North,0,0.0,0.0,49,0.00,,,0.00,VWS V13.01,2013-04-05 21:47:00,
2013-04-05 16:51:00,67.1,47.3,30.95,North,0,0.0,0.0,49,0.00,,,0.00,VWS V13.01,2013-04-05 21:51:00,
2013-04-05 16:52:00,67.3,47.5,30.95,North,0,0.0,0.0,49,0.00,,,0.00,VWS V13.01,2013-04-05 21:52:00,
2013-04-05 16:56:00,67.3,47.5,30.95,North,0,0.0,0.0,49,0.00,,,0.00,VWS V13.01,2013-04-05 21:56:00,
2013-04-05 16:57:00,67.3,47.5,30.95,North,0,0.0,0.0,49,0.00,,,0.00,VWS V13.01,2013-04-05 21:57:00,
2013-04-05 17:02:00,67.5,47.7,30.95,North,0,0.0,0.0,49,0.00,,,0.00,VWS V13.01,2013-04-05 22:02:00,
2013-04-05 17:03:00,67.5,47.7,30.95,North,0,0.0,0.0,49,0.00,,,0.00,VWS V13.01,2013-04-05 22:03:00,
2013-04-05 17:07:00,67.1,47.3,30.95,North,0,0.0,0.0,49,0.00,,,0.00,VWS V13.01,2013-04-05 22:07:00,
2013-04-05 17:08:00,67.1,47.3,30.95,North,0,0.0,0.0,49,0.00,,,0.00,VWS V13.01,2013-04-05 22:08:00,
2013-04-05 17:12:00,67.3,47.5,30.92,North,0,0.0,0.0,49,0.00,,,0.00,VWS V13.01,2013-04-05 22:12:00,
2013-04-05 17:13:00,67.1,47.3,30.92,North,0,0.0,0.0,49,0.00,,,0.00,VWS V13.01,2013-04-05 22:13:00,
2013-04-05 17:17:00,67.3,47.5,30.92,North,0,0.0,0.0,49,0.00,,,0.00,VWS V13.01,2013-04-05 22:17:00,
2013-04-05 17:18:00,67.3,47.5,30.92,North,0,0.0,0.0,49,0.00,,,0.00,VWS V13.01,2013-04-05 22:18:00,
2013-04-05 17:22:00,67.1,47.3,30.92,North,0,0.0,0.0,49,0.00,,,0.00,VWS V13.01,2013-04-05 22:22:00,
2013-04-05 17:23:00,67.1,47.3,30.92,North,0,0.0,0.0,49,0.00,,,0.00,VWS V13.01,2013-04-05 22:23:00,
2013-04-05 17:27:00,66.9,47.2,30.95,North,0,0.0,0.0,49,0.00,,,0.00,VWS V13.01,2013-04-05 22:27:00,
2013-04-05 17:28:00,66.9,47.2,30.95,North,0,0.0,0.0,49,0.00,,,0.00,VWS V13.01,2013-04-05 22:28:00,
2013-04-05 17:32:00,66.9,47.2,30.95,North,0,0.0,0.0,49,0.00,,,0.00,VWS V13.01,2013-04-05 22:32:00,
2013-04-05 17:33:00,66.9,47.2,30.95,North,0,0.0,0.0,49,0.00,,,0.00,VWS V13.01,2013-04-05 22:33:00,
2013-04-05 17:37:00,66.9,47.2,30.95,North,0,0.0,0.0,49,0.00,,,0.00,VWS V13.01,2013-04-05 22:37:00,
2013-04-05 17:38:00,66.9,47.2,30.95,North,0,0.0,0.0,49,0.00,,,0.00,VWS V13.01,2013-04-05 22:38:00,
2013-04-05 17:42:00,66.6,46.8,30.95,North,0,0.0,0.0,49,0.00,,,0.00,VWS V13.01,2013-04-05 22:42:00,
2013-04-05 17:43:00,66.4,46.7,30.95,North,0,0.0,0.0,49,0.00,,,0.00,VWS V13.01,2013-04-05 22:43:00,
2013-04-05 17:44:00,66.4,46.7,30.95,North,0,0.0,0.0,49,0.00,,,0.00,VWS V13.01,2013-04-05 22:44:00,
2013-04-05 17:47:00,66.0,49.4,30.95,North,0,0.0,0.0,55,0.00,,,0.00,VWS V13.01,2013-04-05 22:47:00,
2013-04-05 17:49:00,66.0,49.4,30.95,North,0,0.0,0.0,55,0.00,,,0.00,VWS V13.01,2013-04-05 22:49:00,
2013-04-05 17:53:00,65.8,49.2,30.95,North,0,0.0,0.0,55,0.00,,,0.00,VWS V13.01,2013-04-05 22:53:00,
2013-04-05 17:54:00,65.8,49.2,30.95,North,0,0.0,0.0,55,0.00,,,0.00,VWS V13.01,2013-04-05 22:54:00,
2013-04-05 17:58:00,65.7,49.1,30.92,North,0,0.0,0.0,55,0.00,,,0.00,VWS V13.01,2013-04-05 22:58:00,
2013-04-05 17:59:00,65.7,49.1,30.92,North,0,0.0,0.0,55,0.00,,,0.00,VWS V13.01,2013-04-05 22:59:00,
2013-04-05 18:00:00,65.8,49.2,30.92,North,0,0.0,0.0,55,0.00,,,0.00,VWS V13.01,2013-04-05 23:00:00,
2013-04-05 18:03:00,65.7,49.1,30.92,North,0,0.0,0.0,55,0.00,,,0.00,VWS V13.01,2013-04-05 23:03:00,
2013-04-05 18:04:00,65.8,49.2,30.92,North,0,0.0,0.0,55,0.00,,,0.00,VWS V13.01,2013-04-05 23:04:00,
2013-04-05 18:05:00,65.8,49.2,30.92,North,0,0.0,0.0,55,0.00,,,0.00,VWS V13.01,2013-04-05 23:05:00,
2013-04-05 18:08:00,65.8,49.2,30.92,North,0,0.0,0.0,55,0.00,,,0.00,VWS V13.01,2013-04-05 23:08:00,
2013-04-05 18:09:00,65.8,49.2,30.92,North,0,0.0,0.0,55,0.00,,,0.00,VWS V13.01,2013-04-05 23:09:00,
2013-04-05 18:10:00,65.8,49.2,30.92,North,0,0.0,0.0,55,0.00,,,0.00,VWS V13.01,2013-04-05 23:10:00,
2013-04-05 18:14:00,65.8,49.2,30.92,North,0,0.0,0.0,55,0.00,,,0.00,VWS V13.01,2013-04-05 23:14:00,
2013-04-05 18:15:00,65.8,49.2,30.92,North,0,0.0,0.0,55,0.00,,,0.00,VWS V13.01,2013-04-05 23:15:00,
2013-04-05 18:17:00,65.7,49.1,30.92,North,0,0.0,0.0,55,0.00,,,0.00,VWS V13.01,2013-04-05 23:17:00,
2013-04-05 18:19:00,65.8,49.2,30.92,North,0,0.0,0.0,55,0.00,,,0.00,VWS V13.01,2013-04-05 23:19:00,
2013-04-05 18:20:00,65.8,49.2,30.92,North,0,0.0,0.0,55,0.00,,,0.00,VWS V13.01,2013-04-05 23:20:00,
2013-04-05 18:22:00,65.8,49.2,30.92,North,0,0.0,0.0,55,0.00,,,0.00,VWS V13.01,2013-04-05 23:22:00,
2013-04-05 18:24:00,65.8,49.2,30.92,North,0,0.0,0.0,55,0.00,,,0.00,VWS V13.01,2013-04-05 23:24:00,
2013-04-05 18:25:00,65.8,49.2,30.92,North,0,0.0,0.0,55,0.00,,,0.00,VWS V13.01,2013-04-05 23:25:00,
2013-04-05 18:26:00,65.8,49.2,30.92,North,0,0.0,0.0,55,0.00,,,0.00,VWS V13.01,2013-04-05 23:26:00,
2013-04-05 18:27:00,65.8,49.2,30.92,North,0,0.0,0.0,55,0.00,,,0.00,VWS V13.01,2013-04-05 23:27:00,
2013-04-05 18:29:00,65.7,49.1,30.92,North,0,0.0,0.0,55,0.00,,,0.00,VWS V13.01,2013-04-05 23:29:00,
2013-04-05 18:30:00,65.7,49.1,30.92,North,0,0.0,0.0,55,0.00,,,0.00,VWS V13.01,2013-04-05 23:30:00,
2013-04-05 18:31:00,65.7,49.1,30.92,North,0,0.0,0.0,55,0.00,,,0.00,VWS V13.01,2013-04-05 23:31:00,
2013-04-05 18:32:00,65.7,49.1,30.92,North,0,0.0,0.0,55,0.00,,,0.00,VWS V13.01,2013-04-05 23:32:00,
2013-04-05 18:35:00,65.7,49.1,30.92,North,0,0.0,0.0,55,0.00,,,0.00,VWS V13.01,2013-04-05 23:35:00,
2013-04-05 18:36:00,65.5,48.9,30.92,North,0,0.0,0.0,55,0.00,,,0.00,VWS V13.01,2013-04-05 23:36:00,
2013-04-05 18:37:00,65.5,48.9,30.92,North,0,0.0,0.0,55,0.00,,,0.00,VWS V13.01,2013-04-05 23:37:00,
2013-04-05 18:40:00,65.7,49.1,30.92,North,0,0.0,0.0,55,0.00,,,0.00,VWS V13.01,2013-04-05 23:40:00,
2013-04-05 18:41:00,65.7,49.1,30.92,North,0,0.0,0.0,55,0.00,,,0.00,VWS V13.01,2013-04-05 23:41:00,
2013-04-05 18:42:00,65.7,49.1,30.92,North,0,0.0,0.0,55,0.00,,,0.00,VWS V13.01,2013-04-05 23:42:00,
2013-04-05 18:45:00,65.5,48.9,30.92,North,0,0.0,0.0,55,0.00,,,0.00,VWS V13.01,2013-04-05 23:45:00,
2013-04-05 18:46:00,65.3,48.7,30.92,North,0,0.0,0.0,55,0.00,,,0.00,VWS V13.01,2013-04-05 23:46:00,
2013-04-05 18:47:00,65.1,48.6,30.92,North,0,0.0,0.0,55,0.00,,,0.00,VWS V13.01,2013-04-05 23:47:00,
2013-04-05 18:50:00,65.1,48.6,30.92,North,0,0.0,0.0,55,0.00,,,0.00,VWS V13.01,2013-04-05 23:50:00,
2013-04-05 18:52:00,64.9,48.4,30.92,North,0,0.0,0.0,55,0.00,,,0.00,VWS V13.01,2013-04-05 23:52:00,
2013-04-05 18:55:00,64.8,48.2,30.92,North,0,0.0,0.0,55,0.00,,,0.00,VWS V13.01,2013-04-05 23:55:00,
2013-04-05 18:56:00,64.6,48.1,30.92,North,0,0.0,0.0,55,0.00,,,0.00,VWS V13.01,2013-04-05 23:56:00,
2013-04-05 18:57:00,64.8,48.2,30.92,North,0,0.0,0.0,55,0.00,,,0.00,VWS V13.01,2013-04-05 23:57:00,
2013-04-05 19:00:00,64.6,48.1,30.92,North,0,0.0,0.0,55,0.00,,,0.00,VWS V13.01,2013-04-06 00:00:00,
2013-04-05 19:01:00,64.8,48.2,30.92,North,0,0.0,0.0,55,0.00,,,0.00,VWS V13.01,2013-04-06 00:01:00,
2013-04-05 19:02:00,64.6,48.1,30.92,North,0,0.0,0.0,55,0.00,,,0.00,VWS V13.01,2013-04-06 00:02:00,
2013-04-05 19:05:00,64.6,48.1,30.92,North,0,0.0,0.0,55,0.00,,,0.00,VWS V13.01,2013-04-06 00:05:00,
2013-04-05 19:06:00,64.6,48.1,30.92,North,0,0.0,0.0,55,0.00,,,0.00,VWS V13.01,2013-04-06 00:06:00,
2013-04-05 19:07:00,64.4,47.9,30.92,North,0,0.0,0.0,55,0.00,,,0.00,VWS V13.01,2013-04-06 00:07:00,
2013-04-05 19:10:00,64.2,47.7,30.92,North,0,0.0,0.0,55,0.00,,,0.00,VWS V13.01,2013-04-06 00:10:00,
2013-04-05 19:11:00,64.2,47.7,30.92,North,0,0.0,0.0,55,0.00,,,0.00,VWS V13.01,2013-04-06 00:11:00,
2013-04-05 19:12:00,64.0,47.6,30.92,North,0,0.0,0.0,55,0.00,,,0.00,VWS V13.01,2013-04-06 00:12:00,
2013-04-05 19:15:00,63.9,47.4,30.92,North,0,0.0,0.0,55,0.00,,,0.00,VWS V13.01,2013-04-06 00:15:00,
2013-04-05 19:16:00,63.9,47.4,30.92,North,0,0.0,0.0,55,0.00,,,0.00,VWS V13.01,2013-04-06 00:16:00,
2013-04-05 19:17:00,63.7,47.2,30.92,North,0,0.0,0.0,55,0.00,,,0.00,VWS V13.01,2013-04-06 00:17:00,
2013-04-05 19:20:00,63.7,47.2,30.92,North,0,0.0,0.0,55,0.00,,,0.00,VWS V13.01,2013-04-06 00:20:00,
2013-04-05 19:21:00,63.5,47.1,30.92,North,0,0.0,0.0,55,0.00,,,0.00,VWS V13.01,2013-04-06 00:21:00,
2013-04-05 19:22:00,63.5,47.1,30.92,North,0,0.0,0.0,55,0.00,,,0.00,VWS V13.01,2013-04-06 00:22:00,
2013-04-05 19:25:00,63.1,46.7,30.92,North,0,0.0,0.0,55,0.00,,,0.00,VWS V13.01,2013-04-06 00:25:00,
2013-04-05 19:26:00,63.1,46.7,30.92,North,0,0.0,0.0,55,0.00,,,0.00,VWS V13.01,2013-04-06 00:26:00,
2013-04-05 19:27:00,63.3,46.9,30.92,North,0,0.0,0.0,55,0.00,,,0.00,VWS V13.01,2013-04-06 00:27:00,
2013-04-05 19:28:00,63.3,46.9,30.92,North,0,0.0,0.0,55,0.00,,,0.00,VWS V13.01,2013-04-06 00:28:00,
2013-04-05 19:30:00,63.1,46.7,30.92,North,0,0.0,0.0,55,0.00,,,0.00,VWS V13.01,2013-04-06 00:30:00,
2013-04-05 19:31:00,63.1,46.7,30.92,North,0,0.0,0.0,55,0.00,,,0.00,VWS V13.01,2013-04-06 00:31:00,
2013-04-05 19:32:00,63.1,46.7,30.92,North,0,0.0,0.0,55,0.00,,,0.00,VWS V13.01,2013-04-06 00:32:00,
2013-04-05 19:33:00,63.1,46.7,30.92,North,0,0.0,0.0,55,0.00,,,0.00,VWS V13.01,2013-04-06 00:33:00,
2013-04-05 19:36:00,62.8,46.4,30.92,North,0,0.0,0.0,55,0.00,,,0.00,VWS V13.01,2013-04-06 00:36:00,
2013-04-05 19:37:00,62.8,46.4,30.92,North,0,0.0,0.0,55,0.00,,,0.00,VWS V13.01,2013-04-06 00:37:00,
2013-04-05 19:38:00,62.8,46.4,30.92,North,0,0.0,0.0,55,0.00,,,0.00,VWS V13.01,2013-04-06 00:38:00,
2013-04-05 19:41:00,63.0,46.6,30.92,North,0,0.0,0.0,55,0.00,,,0.00,VWS V13.01,2013-04-06 00:41:00,
2013-04-05 19:42:00,63.0,46.6,30.89,North,0,0.0,0.0,55,0.00,,,0.00,VWS V13.01,2013-04-06 00:42:00,
2013-04-05 19:43:00,62.8,46.4,30.89,North,0,0.0,0.0,55,0.00,,,0.00,VWS V13.01,2013-04-06 00:43:00,
2013-04-05 19:46:00,62.4,48.8,30.89,North,0,0.0,0.0,61,0.00,,,0.00,VWS V13.01,2013-04-06 00:46:00,
2013-04-05 19:47:00,62.2,48.6,30.89,North,0,0.0,0.0,61,0.00,,,0.00,VWS V13.01,2013-04-06 00:47:00,
2013-04-05 19:48:00,62.1,48.5,30.89,North,0,0.0,0.0,61,0.00,,,0.00,VWS V13.01,2013-04-06 00:48:00,
2013-04-05 19:51:00,61.9,48.3,30.89,North,0,0.0,0.0,61,0.00,,,0.00,VWS V13.01,2013-04-06 00:51:00,
2013-04-05 19:52:00,61.9,48.3,30.89,North,0,0.0,0.0,61,0.00,,,0.00,VWS V13.01,2013-04-06 00:52:00,
2013-04-05 19:53:00,62.1,48.5,30.89,North,0,0.0,0.0,61,0.00,,,0.00,VWS V13.01,2013-04-06 00:53:00,
2013-04-05 19:57:00,61.9,48.3,30.89,North,0,0.0,0.0,61,0.00,,,0.00,VWS V13.01,2013-04-06 00:57:00,
2013-04-05 19:58:00,61.9,48.3,30.89,North,0,0.0,0.0,61,0.00,,,0.00,VWS V13.01,2013-04-06 00:58:00,
2013-04-05 20:02:00,61.7,48.1,30.89,North,0,0.0,0.0,61,0.00,,,0.00,VWS V13.01,2013-04-06 01:02:00,
2013-04-05 20:03:00,61.7,48.1,30.89,North,0,0.0,0.0,61,0.00,,,0.00,VWS V13.01,2013-04-06 01:03:00,
2013-04-05 20:07:00,61.3,47.8,30.89,North,0,0.0,0.0,61,0.00,,,0.00,VWS V13.01,2013-04-06 01:07:00,
2013-04-05 20:08:00,61.3,47.8,30.89,North,0,0.0,0.0,61,0.00,,,0.00,VWS V13.01,2013-04-06 01:08:00,
2013-04-05 20:12:00,61.3,47.8,30.89,North,0,0.0,0.0,61,0.00,,,0.00,VWS V13.01,2013-04-06 01:12:00,
2013-04-05 20:13:00,61.3,47.8,30.89,North,0,0.0,0.0,61,0.00,,,0.00,VWS V13.01,2013-04-06 01:13:00,
2013-04-05 20:17:00,61.2,47.6,30.89,North,0,0.0,0.0,61,0.00,,,0.00,VWS V13.01,2013-04-06 01:17:00,
2013-04-05 20:18:00,61.2,47.6,30.89,North,0,0.0,0.0,61,0.00,,,0.00,VWS V13.01,2013-04-06 01:18:00,
2013-04-05 20:22:00,61.3,47.8,30.89,North,0,0.0,0.0,61,0.00,,,0.00,VWS V13.01,2013-04-06 01:22:00,
2013-04-05 20:23:00,61.3,47.8,30.89,North,0,0.0,0.0,61,0.00,,,0.00,VWS V13.01,2013-04-06 01:23:00,
2013-04-05 20:27:00,61.3,47.8,30.89,North,0,0.0,0.0,61,0.00,,,0.00,VWS V13.01,2013-04-06 01:27:00,
2013-04-05 20:28:00,61.3,47.8,30.89,North,0,0.0,0.0,61,0.00,,,0.00,VWS V13.01,2013-04-06 01:28:00,
2013-04-05 20:32:00,61.5,48.0,30.89,North,0,0.0,0.0,61,0.00,,,0.00,VWS V13.01,2013-04-06 01:32:00,
2013-04-05 20:33:00,61.5,48.0,30.89,North,0,0.0,0.0,61,0.00,,,0.00,VWS V13.01,2013-04-06 01:33:00,
2013-04-05 20:37:00,61.5,48.0,30.89,North,0,0.0,0.0,61,0.00,,,0.00,VWS V13.01,2013-04-06 01:37:00,
2013-04-05 20:38:00,61.5,48.0,30.89,North,0,0.0,0.0,61,0.00,,,0.00,VWS V13.01,2013-04-06 01:38:00,
2013-04-05 20:43:00,61.3,47.8,30.89,North,0,0.0,0.0,61,0.00,,,0.00,VWS V13.01,2013-04-06 01:43:00,
2013-04-05 20:48:00,60.6,47.1,30.89,North,0,0.0,0.0,61,0.00,,,0.00,VWS V13.01,2013-04-06 01:48:00,
2013-04-05 20:53:00,61.0,47.5,30.89,North,0,0.0,0.0,61,0.00,,,0.00,VWS V13.01,2013-04-06 01:53:00,
2013-04-05 20:54:00,61.0,47.5,30.89,North,0,0.0,0.0,61,0.00,,,0.00,VWS V13.01,2013-04-06 01:54:00,
2013-04-05 20:58:00,61.3,47.8,30.89,North,0,0.0,0.0,61,0.00,,,0.00,VWS V13.01,2013-04-06 01:58:00,
2013-04-05 20:59:00,61.2,47.6,30.89,North,0,0.0,0.0,61,0.00,,,0.00,VWS V13.01,2013-04-06 01:59:00,
2013-04-05 21:03:00,61.0,47.5,30.89,North,0,0.0,0.0,61,0.00,,,0.00,VWS V13.01,2013-04-06 02:03:00,
2013-04-05 21:04:00,61.2,47.6,30.89,North,0,0.0,0.0,61,0.00,,,0.00,VWS V13.01,2013-04-06 02:04:00,
2013-04-05 21:05:00,61.2,47.6,30.89,North,0,0.0,0.0,61,0.00,,,0.00,VWS V13.01,2013-04-06 02:05:00,
2013-04-05 21:08:00,61.0,47.5,30.89,North,0,0.0,0.0,61,0.00,,,0.00,VWS V13.01,2013-04-06 02:08:00,
2013-04-05 21:09:00,60.8,47.3,30.89,North,0,0.0,0.0,61,0.00,,,0.00,VWS V13.01,2013-04-06 02:09:00,
2013-04-05 21:10:00,60.8,47.3,30.89,North,0,0.0,0.0,61,0.00,,,0.00,VWS V13.01,2013-04-06 02:10:00,
2013-04-05 21:13:00,60.8,47.3,30.89,North,0,0.0,0.0,61,0.00,,,0.00,VWS V13.01,2013-04-06 02:13:00,
2013-04-05 21:15:00,60.8,47.3,30.89,North,0,0.0,0.0,61,0.00,,,0.00,VWS V13.01,2013-04-06 02:15:00,
2013-04-05 21:19:00,60.6,47.1,30.89,North,0,0.0,0.0,61,0.00,,,0.00,VWS V13.01,2013-04-06 02:19:00,
2013-04-05 21:20:00,60.6,47.1,30.89,North,0,0.0,0.0,61,0.00,,,0.00,VWS V13.01,2013-04-06 02:20:00,
2013-04-05 21:24:00,60.6,47.1,30.89,North,0,0.0,0.0,61,0.00,,,0.00,VWS V13.01,2013-04-06 02:24:00,
2013-04-05 21:25:00,60.6,47.1,30.89,North,0,0.0,0.0,61,0.00,,,0.00,VWS V13.01,2013-04-06 02:25:00,
2013-04-05 21:29:00,60.4,46.9,30.89,North,0,0.0,0.0,61,0.00,,,0.00,VWS V13.01,2013-04-06 02:29:00,
2013-04-05 21:30:00,60.4,46.9,30.89,North,0,0.0,0.0,61,0.00,,,0.00,VWS V13.01,2013-04-06 02:30:00,
2013-04-05 21:35:00,60.3,46.8,30.89,North,0,0.0,0.0,61,0.00,,,0.00,VWS V13.01,2013-04-06 02:35:00,
2013-04-05 21:40:00,60.3,46.8,30.89,North,0,0.0,0.0,61,0.00,,,0.00,VWS V13.01,2013-04-06 02:40:00,
2013-04-05 21:45:00,60.1,46.6,30.89,North,0,0.0,0.0,61,0.00,,,0.00,VWS V13.01,2013-04-06 02:45:00,
2013-04-05 21:46:00,60.1,46.6,30.89,North,0,0.0,0.0,61,0.00,,,0.00,VWS V13.01,2013-04-06 02:46:00,
2013-04-05 21:50:00,59.7,46.3,30.89,North,0,0.0,0.0,61,0.00,,,0.00,VWS V13.01,2013-04-06 02:50:00,
2013-04-05 21:51:00,59.7,46.3,30.89,North,0,0.0,0.0,61,0.00,,,0.00,VWS V13.01,2013-04-06 02:51:00,
2013-04-05 21:55:00,59.7,46.3,30.89,North,0,0.0,0.0,61,0.00,,,0.00,VWS V13.01,2013-04-06 02:55:00,
2013-04-05 21:56:00,59.7,46.3,30.89,North,0,0.0,0.0,61,0.00,,,0.00,VWS V13.01,2013-04-06 02:56:00,
2013-04-05 21:57:00,59.7,46.3,30.86,North,0,0.0,0.0,61,0.00,,,0.00,VWS V13.01,2013-04-06 02:57:00,
2013-04-05 22:00:00,59.7,46.3,30.86,North,0,0.0,0.0,61,0.00,,,0.00,VWS V13.01,2013-04-06 03:00:00,
2013-04-05 22:01:00,59.5,46.1,30.86,North,0,0.0,0.0,61,0.00,,,0.00,VWS V13.01,2013-04-06 03:01:00,
2013-04-05 22:02:00,59.4,45.9,30.86,North,0,0.0,0.0,61,0.00,,,0.00,VWS V13.01,2013-04-06 03:02:00,
2013-04-05 22:05:00,59.4,45.9,30.86,North,0,0.0,0.0,61,0.00,,,0.00,VWS V13.01,2013-04-06 03:05:00,
2013-04-05 22:06:00,59.2,45.8,30.86,North,0,0.0,0.0,61,0.00,,,0.00,VWS V13.01,2013-04-06 03:06:00,
2013-04-05 22:07:00,59.2,45.8,30.86,North,0,0.0,0.0,61,0.00,,,0.00,VWS V13.01,2013-04-06 03:07:00,
2013-04-05 22:10:00,58.6,45.2,30.86,North,0,0.0,0.0,61,0.00,,,0.00,VWS V13.01,2013-04-06 03:10:00,
2013-04-05 22:11:00,58.6,45.2,30.86,North,0,0.0,0.0,61,0.00,,,0.00,VWS V13.01,2013-04-06 03:11:00,
2013-04-05 22:12:00,58.5,45.1,30.89,North,0,0.0,0.0,61,0.00,,,0.00,VWS V13.01,2013-04-06 03:12:00,
2013-04-05 22:16:00,58.3,44.9,30.89,North,0,0.0,0.0,61,0.00,,,0.00,VWS V13.01,2013-04-06 03:16:00,
2013-04-05 22:17:00,58.3,44.9,30.89,North,0,0.0,0.0,61,0.00,,,0.00,VWS V13.01,2013-04-06 03:17:00,
2013-04-05 22:21:00,57.9,44.6,30.89,North,0,0.0,0.0,61,0.00,,,0.00,VWS V13.01,2013-04-06 03:21:00,
2013-04-05 22:22:00,57.9,44.6,30.89,North,0,0.0,0.0,61,0.00,,,0.00,VWS V13.01,2013-04-06 03:22:00,
2013-04-05 22:23:00,57.9,44.6,30.89,North,0,0.0,0.0,61,0.00,,,0.00,VWS V13.01,2013-04-06 03:23:00,
2013-04-05 22:26:00,57.7,44.4,30.89,North,0,0.0,0.0,61,0.00,,,0.00,VWS V13.01,2013-04-06 03:26:00,
2013-04-05 22:27:00,57.7,44.4,30.86,North,0,0.0,0.0,61,0.00,,,0.00,VWS V13.01,2013-04-06 03:27:00,
2013-04-05 22:28:00,57.6,44.2,30.86,North,0,0.0,0.0,61,0.00,,,0.00,VWS V13.01,2013-04-06 03:28:00,
2013-04-05 22:32:00,57.6,44.2,30.86,North,0,0.0,0.0,61,0.00,,,0.00,VWS V13.01,2013-04-06 03:32:00,
2013-04-05 22:33:00,57.2,43.9,30.86,North,0,0.0,0.0,61,0.00,,,0.00,VWS V13.01,2013-04-06 03:33:00,
2013-04-05 22:34:00,57.2,43.9,30.86,North,0,0.0,0.0,61,0.00,,,0.00,VWS V13.01,2013-04-06 03:34:00,
2013-04-05 22:37:00,57.0,46.2,30.86,North,0,0.0,0.0,67,0.00,,,0.00,VWS V13.01,2013-04-06 03:37:00,
2013-04-05 22:38:00,57.0,46.2,30.86,North,0,0.0,0.0,67,0.00,,,0.00,VWS V13.01,2013-04-06 03:38:00,
2013-04-05 22:39:00,56.8,46.0,30.86,North,0,0.0,0.0,67,0.00,,,0.00,VWS V13.01,2013-04-06 03:39:00,
2013-04-05 22:42:00,56.8,46.0,30.86,North,0,0.0,0.0,67,0.00,,,0.00,VWS V13.01,2013-04-06 03:42:00,
2013-04-05 22:43:00,56.8,46.0,30.86,North,0,0.0,0.0,67,0.00,,,0.00,VWS V13.01,2013-04-06 03:43:00,
2013-04-05 22:45:00,56.7,45.8,30.86,North,0,0.0,0.0,67,0.00,,,0.00,VWS V13.01,2013-04-06 03:45:00,
2013-04-05 22:47:00,57.0,46.2,30.86,North,0,0.0,0.0,67,0.00,,,0.00,VWS V13.01,2013-04-06 03:47:00,
2013-04-05 22:48:00,57.2,43.9,30.86,North,0,0.0,0.0,61,0.00,,,0.00,VWS V13.01,2013-04-06 03:48:00,
2013-04-05 22:50:00,57.2,43.9,30.86,North,0,0.0,0.0,61,0.00,,,0.00,VWS V13.01,2013-04-06 03:50:00,
2013-04-05 22:52:00,57.4,44.1,30.86,North,0,0.0,0.0,61,0.00,,,0.00,VWS V13.01,2013-04-06 03:52:00,
2013-04-05 22:53:00,57.4,44.1,30.86,North,0,0.0,0.0,61,0.00,,,0.00,VWS V13.01,2013-04-06 03:53:00,
2013-04-05 22:55:00,57.4,44.1,30.86,North,0,0.0,0.0,61,0.00,,,0.00,VWS V13.01,2013-04-06 03:55:00,
2013-04-05 22:57:00,57.2,43.9,30.86,North,0,0.0,0.0,61,0.00,,,0.00,VWS V13.01,2013-04-06 03:57:00,
2013-04-05 22:59:00,57.2,43.9,30.86,North,0,0.0,0.0,61,0.00,,,0.00,VWS V13.01,2013-04-06 03:59:00,
2013-04-05 23:00:00,57.2,43.9,30.86,North,0,0.0,0.0,61,0.00,,,0.00,VWS V13.01,2013-04-06 04:00:00,
2013-04-05 23:05:00,57.2,43.9,30.86,North,0,0.0,0.0,61,0.00,,,0.00,VWS V13.01,2013-04-06 04:05:00,
2013-04-05 23:10:00,57.2,43.9,30.86,North,0,0.0,0.0,61,0.00,,,0.00,VWS V13.01,2013-04-06 04:10:00,
2013-04-05 23:15:00,57.0,46.2,30.86,North,0,0.0,0.0,67,0.00,,,0.00,VWS V13.01,2013-04-06 04:15:00,
2013-04-05 23:20:00,56.3,45.5,30.86,North,0,0.0,0.0,67,0.00,,,0.00,VWS V13.01,2013-04-06 04:20:00,
2013-04-05 23:21:00,56.3,45.5,30.86,North,0,0.0,0.0,67,0.00,,,0.00,VWS V13.01,2013-04-06 04:21:00,
2013-04-05 23:22:00,56.3,45.5,30.86,North,0,0.0,0.0,67,0.00,,,0.00,VWS V13.01,2013-04-06 04:22:00,
2013-04-05 23:25:00,56.1,45.3,30.86,North,0,0.0,0.0,67,0.00,,,0.00,VWS V13.01,2013-04-06 04:25:00,
2013-04-05 23:27:00,56.3,45.5,30.83,North,0,0.0,0.0,67,0.00,,,0.00,VWS V13.01,2013-04-06 04:27:00,
2013-04-05 23:30:00,56.7,45.8,30.83,North,0,0.0,0.0,67,0.00,,,0.00,VWS V13.01,2013-04-06 04:30:00,
2013-04-05 23:32:00,56.5,45.7,30.83,North,0,0.0,0.0,67,0.00,,,0.00,VWS V13.01,2013-04-06 04:32:00,
2013-04-05 23:35:00,56.5,45.7,30.83,North,0,0.0,0.0,67,0.00,,,0.00,VWS V13.01,2013-04-06 04:35:00,
2013-04-05 23:37:00,56.5,45.7,30.83,North,0,0.0,0.0,67,0.00,,,0.00,VWS V13.01,2013-04-06 04:37:00,
2013-04-05 23:38:00,56.5,45.7,30.83,North,0,0.0,0.0,67,0.00,,,0.00,VWS V13.01,2013-04-06 04:38:00,
2013-04-05 23:40:00,56.5,45.7,30.83,North,0,0.0,0.0,67,0.00,,,0.00,VWS V13.01,2013-04-06 04:40:00,
2013-04-05 23:41:00,56.5,45.7,30.83,North,0,0.0,0.0,67,0.00,,,0.00,VWS V13.01,2013-04-06 04:41:00,
2013-04-05 23:42:00,56.3,45.5,30.83,North,0,0.0,0.0,67,0.00,,,0.00,VWS V13.01,2013-04-06 04:42:00,
2013-04-05 23:43:00,56.3,45.5,30.83,North,0,0.0,0.0,67,0.00,,,0.00,VWS V13.01,2013-04-06 04:43:00,
2013-04-05 23:46:00,56.3,45.5,30.83,North,0,0.0,0.0,67,0.00,,,0.00,VWS V13.01,2013-04-06 04:46:00,
2013-04-05 23:47:00,56.3,45.5,30.83,North,0,0.0,0.0,67,0.00,,,0.00,VWS V13.01,2013-04-06 04:47:00,
2013-04-05 23:48:00,56.3,45.5,30.83,North,0,0.0,0.0,67,0.00,,,0.00,VWS V13.01,2013-04-06 04:48:00,
2013-04-05 23:51:00,56.3,45.5,30.83,North,0,0.0,0.0,67,0.00,,,0.00,VWS V13.01,2013-04-06 04:51:00,
2013-04-05 23:52:00,56.5,45.7,30.83,North,0,0.0,0.0,67,0.00,,,0.00,VWS V13.01,2013-04-06 04:52:00,
2013-04-05 23:53:00,56.5,45.7,30.83,North,0,0.0,0.0,67,0.00,,,0.00,VWS V13.01,2013-04-06 04:53:00,
2013-04-05 23:56:00,56.3,45.5,30.83,North,0,0.0,0.0,67,0.00,,,0.00,VWS V13.01,2013-04-06 04:56:00,
2013-04-05 23:57:00,56.1,45.3,30.83,North,0,0.0,0.0,67,0.00,,,0.00,VWS V13.01,2013-04-06 04:57:00,
2013-04-05 23:58:00,56.1,45.3,30.83,North,0,0.0,0.0,67,0.00,,,0.00,VWS V13.01,2013-04-06 04:58:00,